Time,TemperatureF,DewpointF,PressureIn,WindDirection,WindDirectionDegrees,WindSpeedMPH,WindSpeedGustMPH,Humidity,HourlyPrecipIn,Conditions,Clouds,dailyrainin,SoftwareType,DateUTC
2013-06-19 00:01:00,81.4,71.1,29.81,SSE,155,3.0,5.0,71,0.00,,,0.00,Wunderground v.1.15,2013-06-19 05:01:00,
2013-06-19 00:04:00,81.2,71.3,29.81,SSE,164,3.0,5.0,72,0.00,,,0.00,Wunderground v.1.15,2013-06-19 05:04:00,
2013-06-19 00:06:00,81.2,71.3,29.81,SSE,154,3.0,6.0,72,0.00,,,0.00,Wunderground v.1.15,2013-06-19 05:06:00,
2013-06-19 00:08:00,81.2,71.3,29.81,SE,145,3.0,6.0,72,0.00,,,0.00,Wunderground v.1.15,2013-06-19 05:08:00,
2013-06-19 00:11:00,81.1,71.6,29.81,SE,137,3.0,3.0,73,0.00,,,0.00,Wunderground v.1.15,2013-06-19 05:11:00,
2013-06-19 00:12:00,81.1,71.6,29.81,SE,133,3.0,3.0,73,0.00,,,0.00,Wunderground v.1.15,2013-06-19 05:12:00,
2013-06-19 00:14:00,81.1,71.6,29.81,SE,133,3.0,5.0,73,0.00,,,0.00,Wunderground v.1.15,2013-06-19 05:14:00,
2013-06-19 00:16:00,81.1,72.0,29.81,SSE,167,3.0,5.0,74,0.00,,,0.00,Wunderground v.1.15,2013-06-19 05:16:00,
2013-06-19 00:18:00,80.9,71.8,29.81,SSE,154,2.0,5.0,74,0.00,,,0.00,Wunderground v.1.15,2013-06-19 05:18:00,
2013-06-19 00:21:00,80.9,71.8,29.81,SE,134,2.0,8.0,74,0.00,,,0.00,Wunderground v.1.15,2013-06-19 05:21:00,
2013-06-19 00:22:00,80.9,71.8,29.81,SSE,165,3.0,9.0,74,0.00,,,0.00,Wunderground v.1.15,2013-06-19 05:22:00,
2013-06-19 00:26:00,80.9,71.8,29.81,SSE,165,3.0,9.0,74,0.00,,,0.00,Wunderground v.1.15,2013-06-19 05:26:00,
2013-06-19 00:27:00,80.9,71.8,29.81,South,176,3.0,9.0,74,0.00,,,0.00,Wunderground v.1.15,2013-06-19 05:27:00,
2013-06-19 00:29:00,80.9,71.8,29.81,SE,126,3.0,9.0,74,0.00,,,0.00,Wunderground v.1.15,2013-06-19 05:29:00,
2013-06-19 00:33:00,80.7,71.6,29.81,SSW,195,4.0,7.0,74,0.00,,,0.00,Wunderground v.1.15,2013-06-19 05:33:00,
2013-06-19 00:34:00,80.7,71.6,29.81,South,188,3.0,7.0,74,0.00,,,0.00,Wunderground v.1.15,2013-06-19 05:34:00,
2013-06-19 00:35:00,80.7,71.6,29.81,South,188,3.0,7.0,74,0.00,,,0.00,Wunderground v.1.15,2013-06-19 05:35:00,
2013-06-19 00:41:00,80.5,71.8,29.81,South,175,4.0,5.0,75,0.00,,,0.00,Wunderground v.1.15,2013-06-19 05:41:00,
2013-06-19 00:42:00,80.3,71.6,29.81,SSE,168,4.0,5.0,75,0.00,,,0.00,Wunderground v.1.15,2013-06-19 05:42:00,
2013-06-19 00:44:00,80.3,71.6,29.81,South,171,3.0,5.0,75,0.00,,,0.00,Wunderground v.1.15,2013-06-19 05:44:00,
2013-06-19 00:48:00,80.3,72.0,29.81,SSE,155,3.0,6.0,76,0.00,,,0.00,Wunderground v.1.15,2013-06-19 05:48:00,
2013-06-19 00:51:00,80.1,71.8,29.81,South,184,2.0,3.0,76,0.00,,,0.00,Wunderground v.1.15,2013-06-19 05:51:00,
2013-06-19 00:52:00,80.1,71.8,29.81,South,182,2.0,3.0,76,0.00,,,0.00,Wunderground v.1.15,2013-06-19 05:52:00,
2013-06-19 00:53:00,80.1,71.8,29.81,South,181,2.0,3.0,76,0.00,,,0.00,Wunderground v.1.15,2013-06-19 05:53:00,
2013-06-19 00:54:00,79.9,72.0,29.81,South,175,2.0,3.0,77,0.00,,,0.00,Wunderground v.1.15,2013-06-19 05:54:00,
2013-06-19 00:57:00,79.9,72.0,29.81,South,175,2.0,3.0,77,0.00,,,0.00,Wunderground v.1.15,2013-06-19 05:57:00,
2013-06-19 01:03:00,79.8,71.9,29.81,SSE,154,1.0,1.0,77,0.00,,,0.00,Wunderground v.1.15,2013-06-19 06:03:00,
2013-06-19 01:04:00,79.8,71.9,29.81,SSE,154,1.0,1.0,77,0.00,,,0.00,Wunderground v.1.15,2013-06-19 06:04:00,
2013-06-19 01:06:00,79.6,71.8,29.81,SE,144,1.0,6.0,77,0.00,,,0.00,Wunderground v.1.15,2013-06-19 06:06:00,
2013-06-19 01:08:00,79.6,71.8,29.81,SSE,152,2.0,6.0,77,0.00,,,0.00,Wunderground v.1.15,2013-06-19 06:08:00,
2013-06-19 01:11:00,79.6,72.1,29.81,SSW,206,2.0,7.0,78,0.00,,,0.00,Wunderground v.1.15,2013-06-19 06:11:00,
2013-06-19 01:12:00,79.6,72.1,29.81,SSW,192,2.0,7.0,78,0.00,,,0.00,Wunderground v.1.15,2013-06-19 06:12:00,
2013-06-19 01:13:00,79.4,71.9,29.81,South,175,2.0,7.0,78,0.00,,,0.00,Wunderground v.1.15,2013-06-19 06:13:00,
2013-06-19 01:14:00,79.4,71.9,29.81,South,175,3.0,7.0,78,0.00,,,0.00,Wunderground v.1.15,2013-06-19 06:14:00,
2013-06-19 01:18:00,79.4,71.9,29.81,South,182,3.0,7.0,78,0.00,,,0.00,Wunderground v.1.15,2013-06-19 06:18:00,
2013-06-19 01:21:00,79.2,71.7,29.81,South,179,3.0,7.0,78,0.00,,,0.00,Wunderground v.1.15,2013-06-19 06:21:00,
2013-06-19 01:22:00,79.2,71.7,29.81,South,176,3.0,4.0,78,0.00,,,0.00,Wunderground v.1.15,2013-06-19 06:22:00,
2013-06-19 01:23:00,79.2,71.7,29.81,SSW,206,3.0,4.0,78,0.00,,,0.00,Wunderground v.1.15,2013-06-19 06:23:00,
2013-06-19 01:26:00,79.2,71.7,29.81,South,181,4.0,6.0,78,0.00,,,0.00,Wunderground v.1.15,2013-06-19 06:26:00,
2013-06-19 01:27:00,79.0,71.9,29.81,South,176,3.0,6.0,79,0.00,,,0.00,Wunderground v.1.15,2013-06-19 06:27:00,
2013-06-19 01:29:00,79.0,71.9,29.81,South,184,3.0,6.0,79,0.00,,,0.00,Wunderground v.1.15,2013-06-19 06:29:00,
2013-06-19 01:31:00,79.0,71.9,29.81,South,171,4.0,7.0,79,0.00,,,0.00,Wunderground v.1.15,2013-06-19 06:31:00,
2013-06-19 01:33:00,78.8,71.7,29.80,SSE,162,5.0,5.0,79,0.00,,,0.00,Wunderground v.1.15,2013-06-19 06:33:00,
2013-06-19 01:34:00,78.8,71.7,29.80,South,169,5.0,5.0,79,0.00,,,0.00,Wunderground v.1.15,2013-06-19 06:34:00,
2013-06-19 01:38:00,78.6,71.9,29.80,South,175,5.0,7.0,80,0.00,,,0.00,Wunderground v.1.15,2013-06-19 06:38:00,
2013-06-19 01:39:00,78.6,71.9,29.80,South,175,5.0,7.0,80,0.00,,,0.00,Wunderground v.1.15,2013-06-19 06:39:00,
2013-06-19 01:41:00,78.6,71.9,29.80,South,182,4.0,7.0,80,0.00,,,0.00,Wunderground v.1.15,2013-06-19 06:41:00,
2013-06-19 01:44:00,78.6,71.9,29.80,South,174,3.0,4.0,80,0.00,,,0.00,Wunderground v.1.15,2013-06-19 06:44:00,
2013-06-19 01:45:00,78.6,71.9,29.80,SE,128,3.0,4.0,80,0.00,,,0.00,Wunderground v.1.15,2013-06-19 06:45:00,
2013-06-19 01:46:00,78.6,71.9,29.80,SE,128,2.0,4.0,80,0.00,,,0.00,Wunderground v.1.15,2013-06-19 06:46:00,
2013-06-19 01:47:00,78.5,71.8,29.80,SE,128,1.0,4.0,80,0.00,,,0.00,Wunderground v.1.15,2013-06-19 06:47:00,
2013-06-19 01:48:00,78.5,71.8,29.80,SE,143,1.0,4.0,80,0.00,,,0.00,Wunderground v.1.15,2013-06-19 06:48:00,
2013-06-19 01:51:00,78.5,72.2,29.80,SE,143,1.0,1.0,81,0.00,,,0.00,Wunderground v.1.15,2013-06-19 06:51:00,
2013-06-19 01:55:00,78.3,72.3,29.80,South,169,2.0,6.0,82,0.00,,,0.00,Wunderground v.1.15,2013-06-19 06:55:00,
2013-06-19 01:56:00,78.3,72.3,29.80,South,169,2.0,6.0,82,0.00,,,0.00,Wunderground v.1.15,2013-06-19 06:56:00,
2013-06-19 01:57:00,78.3,72.3,29.80,SE,137,2.0,6.0,82,0.00,,,0.00,Wunderground v.1.15,2013-06-19 06:57:00,
2013-06-19 02:01:00,78.1,72.2,29.80,SE,138,2.0,2.0,82,0.00,,,0.00,Wunderground v.1.15,2013-06-19 07:01:00,
2013-06-19 02:02:00,78.1,72.2,29.80,SE,138,2.0,2.0,82,0.00,,,0.00,Wunderground v.1.15,2013-06-19 07:02:00,
2013-06-19 02:06:00,77.9,72.3,29.80,SE,138,1.0,2.0,83,0.00,,,0.00,Wunderground v.1.15,2013-06-19 07:06:00,
2013-06-19 02:08:00,77.9,72.3,29.80,SE,140,1.0,2.0,83,0.00,,,0.00,Wunderground v.1.15,2013-06-19 07:08:00,
2013-06-19 02:09:00,77.9,72.3,29.80,SE,141,1.0,2.0,83,0.00,,,0.00,Wunderground v.1.15,2013-06-19 07:09:00,
2013-06-19 02:11:00,77.9,72.3,29.80,SSE,150,2.0,2.0,83,0.00,,,0.00,Wunderground v.1.15,2013-06-19 07:11:00,
2013-06-19 02:12:00,77.9,72.3,29.80,SSE,147,2.0,6.0,83,0.00,,,0.00,Wunderground v.1.15,2013-06-19 07:12:00,
2013-06-19 02:14:00,77.7,72.5,29.80,SSW,192,2.0,6.0,84,0.00,,,0.00,Wunderground v.1.15,2013-06-19 07:14:00,
2013-06-19 02:15:00,77.7,72.5,29.80,SE,126,3.0,6.0,84,0.00,,,0.00,Wunderground v.1.15,2013-06-19 07:15:00,
2013-06-19 02:16:00,77.7,72.5,29.80,SE,127,3.0,6.0,84,0.00,,,0.00,Wunderground v.1.15,2013-06-19 07:16:00,
2013-06-19 02:17:00,77.7,72.5,29.80,SE,144,3.0,6.0,84,0.00,,,0.00,Wunderground v.1.15,2013-06-19 07:17:00,
2013-06-19 02:21:00,77.7,72.5,29.80,South,191,3.0,6.0,84,0.00,,,0.00,Wunderground v.1.15,2013-06-19 07:21:00,
2013-06-19 02:22:00,77.7,72.5,29.80,South,174,3.0,6.0,84,0.00,,,0.00,Wunderground v.1.15,2013-06-19 07:22:00,
2013-06-19 02:23:00,77.6,72.4,29.80,South,175,3.0,6.0,84,0.00,,,0.00,Wunderground v.1.15,2013-06-19 07:23:00,
2013-06-19 02:25:00,77.6,72.4,29.80,SSE,158,3.0,6.0,84,0.00,,,0.00,Wunderground v.1.15,2013-06-19 07:25:00,
2013-06-19 02:27:00,77.6,72.7,29.80,SSE,152,3.0,6.0,85,0.00,,,0.00,Wunderground v.1.15,2013-06-19 07:27:00,
2013-06-19 02:28:00,77.6,72.7,29.80,SSE,152,2.0,6.0,85,0.00,,,0.00,Wunderground v.1.15,2013-06-19 07:28:00,
2013-06-19 02:31:00,77.4,72.5,29.80,SSE,152,2.0,6.0,85,0.00,,,0.00,Wunderground v.1.15,2013-06-19 07:31:00,
2013-06-19 02:32:00,77.4,72.5,29.80,SSE,154,2.0,2.0,85,0.00,,,0.00,Wunderground v.1.15,2013-06-19 07:32:00,
2013-06-19 02:33:00,77.4,72.5,29.80,SSE,154,1.0,2.0,85,0.00,,,0.00,Wunderground v.1.15,2013-06-19 07:33:00,
2013-06-19 02:36:00,77.4,72.5,29.80,SE,145,1.0,5.0,85,0.00,,,0.00,Wunderground v.1.15,2013-06-19 07:36:00,
2013-06-19 02:39:00,77.2,72.3,29.80,SSE,148,1.0,5.0,85,0.00,,,0.00,Wunderground v.1.15,2013-06-19 07:39:00,
2013-06-19 02:41:00,77.2,72.3,29.80,SSE,158,1.0,5.0,85,0.00,,,0.00,Wunderground v.1.15,2013-06-19 07:41:00,
2013-06-19 02:45:00,77.0,72.1,29.80,SSE,158,2.0,4.0,85,0.00,,,0.00,Wunderground v.1.15,2013-06-19 07:45:00,
2013-06-19 02:48:00,77.0,72.1,29.80,South,188,3.0,6.0,85,0.00,,,0.00,Wunderground v.1.15,2013-06-19 07:48:00,
2013-06-19 02:49:00,77.0,72.1,29.80,South,188,3.0,6.0,85,0.00,,,0.00,Wunderground v.1.15,2013-06-19 07:49:00,
2013-06-19 02:51:00,77.0,72.1,29.80,South,188,3.0,6.0,85,0.00,,,0.00,Wunderground v.1.15,2013-06-19 07:51:00,
2013-06-19 02:54:00,76.8,71.9,29.80,South,188,2.0,2.0,85,0.00,,,0.00,Wunderground v.1.15,2013-06-19 07:54:00,
2013-06-19 02:55:00,76.8,71.9,29.80,SSE,164,2.0,2.0,85,0.00,,,0.00,Wunderground v.1.15,2013-06-19 07:55:00,
2013-06-19 02:56:00,76.8,72.3,29.80,SSE,165,2.0,2.0,86,0.00,,,0.00,Wunderground v.1.15,2013-06-19 07:56:00,
2013-06-19 02:58:00,76.8,72.3,29.80,SSE,165,2.0,4.0,86,0.00,,,0.00,Wunderground v.1.15,2013-06-19 07:58:00,
2013-06-19 03:01:00,76.8,72.3,29.80,SE,140,2.0,3.0,86,0.00,,,0.00,Wunderground v.1.15,2013-06-19 08:01:00,
2013-06-19 03:06:00,76.7,72.2,29.80,SE,141,2.0,3.0,86,0.00,,,0.00,Wunderground v.1.15,2013-06-19 08:06:00,
2013-06-19 03:07:00,76.7,72.2,29.80,SE,133,1.0,3.0,86,0.00,,,0.00,Wunderground v.1.15,2013-06-19 08:07:00,
2013-06-19 03:09:00,76.7,72.2,29.80,SSE,160,2.0,3.0,86,0.00,,,0.00,Wunderground v.1.15,2013-06-19 08:09:00,
2013-06-19 03:11:00,76.7,72.2,29.80,SSE,160,1.0,1.0,86,0.00,,,0.00,Wunderground v.1.15,2013-06-19 08:11:00,
2013-06-19 03:13:00,76.7,72.2,29.80,SSE,160,1.0,1.0,86,0.00,,,0.00,Wunderground v.1.15,2013-06-19 08:13:00,
2013-06-19 03:16:00,76.7,72.2,29.80,South,172,1.0,4.0,86,0.00,,,0.00,Wunderground v.1.15,2013-06-19 08:16:00,
2013-06-19 03:17:00,76.5,72.0,29.80,South,172,2.0,4.0,86,0.00,,,0.00,Wunderground v.1.15,2013-06-19 08:17:00,
2013-06-19 03:19:00,76.5,72.0,29.80,South,174,1.0,4.0,86,0.00,,,0.00,Wunderground v.1.15,2013-06-19 08:19:00,
2013-06-19 03:21:00,76.5,72.3,29.80,South,191,1.0,1.0,87,0.00,,,0.00,Wunderground v.1.15,2013-06-19 08:21:00,
2013-06-19 03:22:00,76.5,72.3,29.80,South,191,2.0,2.0,87,0.00,,,0.00,Wunderground v.1.15,2013-06-19 08:22:00,
2013-06-19 03:24:00,76.5,72.3,29.80,South,188,2.0,2.0,87,0.00,,,0.00,Wunderground v.1.15,2013-06-19 08:24:00,
2013-06-19 03:27:00,76.3,72.1,29.80,South,189,1.0,6.0,87,0.00,,,0.00,Wunderground v.1.15,2013-06-19 08:27:00,
2013-06-19 03:29:00,76.3,72.1,29.80,South,185,1.0,6.0,87,0.00,,,0.00,Wunderground v.1.15,2013-06-19 08:29:00,
2013-06-19 03:31:00,76.3,72.1,29.80,South,174,2.0,6.0,87,0.00,,,0.00,Wunderground v.1.15,2013-06-19 08:31:00,
2013-06-19 03:35:00,76.3,72.1,29.80,SSE,167,3.0,6.0,87,0.00,,,0.00,Wunderground v.1.15,2013-06-19 08:35:00,
2013-06-19 03:36:00,76.3,72.1,29.80,South,174,3.0,6.0,87,0.00,,,0.00,Wunderground v.1.15,2013-06-19 08:36:00,
2013-06-19 03:39:00,76.1,71.9,29.80,South,185,3.0,6.0,87,0.00,,,0.00,Wunderground v.1.15,2013-06-19 08:39:00,
2013-06-19 03:41:00,76.1,71.9,29.80,SSE,150,3.0,3.0,87,0.00,,,0.00,Wunderground v.1.15,2013-06-19 08:41:00,
2013-06-19 03:42:00,76.1,71.9,29.80,SSE,150,2.0,3.0,87,0.00,,,0.00,Wunderground v.1.15,2013-06-19 08:42:00,
2013-06-19 03:43:00,76.1,71.9,29.80,SSE,161,3.0,3.0,87,0.00,,,0.00,Wunderground v.1.15,2013-06-19 08:43:00,
2013-06-19 03:44:00,76.1,71.9,29.80,SSE,160,3.0,3.0,87,0.00,,,0.00,Wunderground v.1.15,2013-06-19 08:44:00,
2013-06-19 03:48:00,76.1,71.9,29.80,South,184,3.0,6.0,87,0.00,,,0.00,Wunderground v.1.15,2013-06-19 08:48:00,
2013-06-19 03:51:00,76.1,71.9,29.80,South,188,2.0,5.0,87,0.00,,,0.00,Wunderground v.1.15,2013-06-19 08:51:00,
2013-06-19 03:52:00,76.1,71.9,29.80,South,179,3.0,5.0,87,0.00,,,0.00,Wunderground v.1.15,2013-06-19 08:52:00,
2013-06-19 03:53:00,76.1,71.9,29.80,South,179,3.0,5.0,87,0.00,,,0.00,Wunderground v.1.15,2013-06-19 08:53:00,
2013-06-19 03:57:00,76.0,71.8,29.80,SW,215,4.0,5.0,87,0.00,,,0.00,Wunderground v.1.15,2013-06-19 08:57:00,
2013-06-19 03:58:00,76.0,71.8,29.80,SSW,212,3.0,5.0,87,0.00,,,0.00,Wunderground v.1.15,2013-06-19 08:58:00,
2013-06-19 03:59:00,76.0,71.8,29.80,South,178,3.0,5.0,87,0.00,,,0.00,Wunderground v.1.15,2013-06-19 08:59:00,
2013-06-19 04:01:00,76.0,71.8,29.80,SSW,199,3.0,6.0,87,0.00,,,0.00,Wunderground v.1.15,2013-06-19 09:01:00,
2013-06-19 04:03:00,76.0,71.8,29.80,South,184,4.0,7.0,87,0.00,,,0.00,Wunderground v.1.15,2013-06-19 09:03:00,
2013-06-19 04:05:00,76.0,71.8,29.80,South,174,4.0,7.0,87,0.00,,,0.00,Wunderground v.1.15,2013-06-19 09:05:00,
2013-06-19 04:06:00,76.0,71.8,29.80,South,191,4.0,7.0,87,0.00,,,0.00,Wunderground v.1.15,2013-06-19 09:06:00,
2013-06-19 04:09:00,76.0,71.8,29.80,SSW,200,4.0,7.0,87,0.00,,,0.00,Wunderground v.1.15,2013-06-19 09:09:00,
2013-06-19 04:11:00,76.0,71.8,29.80,SSW,192,3.0,4.0,87,0.00,,,0.00,Wunderground v.1.15,2013-06-19 09:11:00,
2013-06-19 04:12:00,76.0,71.8,29.80,SSW,192,3.0,4.0,87,0.00,,,0.00,Wunderground v.1.15,2013-06-19 09:12:00,
2013-06-19 04:14:00,76.0,71.8,29.80,SW,215,3.0,7.0,87,0.00,,,0.00,Wunderground v.1.15,2013-06-19 09:14:00,
2013-06-19 04:17:00,76.0,72.2,29.80,South,185,3.0,7.0,88,0.00,,,0.00,Wunderground v.1.15,2013-06-19 09:17:00,
2013-06-19 04:19:00,76.0,72.2,29.80,SSW,209,3.0,7.0,88,0.00,,,0.00,Wunderground v.1.15,2013-06-19 09:19:00,
2013-06-19 04:21:00,76.0,72.2,29.80,South,169,3.0,3.0,88,0.00,,,0.00,Wunderground v.1.15,2013-06-19 09:21:00,
2013-06-19 04:22:00,76.0,72.2,29.80,South,174,3.0,3.0,88,0.00,,,0.00,Wunderground v.1.15,2013-06-19 09:22:00,
2013-06-19 04:24:00,76.0,72.2,29.80,South,179,3.0,8.0,88,0.00,,,0.00,Wunderground v.1.15,2013-06-19 09:24:00,
2013-06-19 04:25:00,76.0,72.2,29.80,South,175,3.0,8.0,88,0.00,,,0.00,Wunderground v.1.15,2013-06-19 09:25:00,
2013-06-19 04:26:00,76.0,72.2,29.80,SSW,195,3.0,8.0,88,0.00,,,0.00,Wunderground v.1.15,2013-06-19 09:26:00,
2013-06-19 04:29:00,76.0,72.2,29.80,South,181,3.0,8.0,88,0.00,,,0.00,Wunderground v.1.15,2013-06-19 09:29:00,
2013-06-19 04:31:00,76.0,72.2,29.80,South,182,3.0,7.0,88,0.00,,,0.00,Wunderground v.1.15,2013-06-19 09:31:00,
2013-06-19 04:32:00,76.0,72.2,29.80,SSE,150,3.0,7.0,88,0.00,,,0.00,Wunderground v.1.15,2013-06-19 09:32:00,
2013-06-19 04:33:00,76.0,72.2,29.80,South,179,3.0,10.0,88,0.00,,,0.00,Wunderground v.1.15,2013-06-19 09:33:00,
2013-06-19 04:34:00,76.0,72.2,29.80,SSE,164,4.0,11.0,88,0.00,,,0.00,Wunderground v.1.15,2013-06-19 09:34:00,
2013-06-19 04:36:00,75.8,72.0,29.80,SSE,165,4.0,11.0,88,0.00,,,0.00,Wunderground v.1.15,2013-06-19 09:36:00,
2013-06-19 04:37:00,75.8,71.7,29.80,South,185,4.0,11.0,87,0.00,,,0.00,Wunderground v.1.15,2013-06-19 09:37:00,
2013-06-19 04:42:00,76.0,71.8,29.80,SSE,160,5.0,7.0,87,0.00,,,0.00,Wunderground v.1.15,2013-06-19 09:42:00,
2013-06-19 04:43:00,75.8,71.7,29.80,SSE,152,6.0,10.0,87,0.00,,,0.00,Wunderground v.1.15,2013-06-19 09:43:00,
2013-06-19 04:45:00,75.8,71.7,29.80,SSW,192,5.0,10.0,87,0.00,,,0.00,Wunderground v.1.15,2013-06-19 09:45:00,
2013-06-19 04:48:00,75.8,71.7,29.80,South,176,5.0,10.0,87,0.00,,,0.00,Wunderground v.1.15,2013-06-19 09:48:00,
2013-06-19 04:49:00,75.8,71.7,29.80,South,188,5.0,10.0,87,0.00,,,0.00,Wunderground v.1.15,2013-06-19 09:49:00,
2013-06-19 04:51:00,76.0,71.8,29.80,South,186,5.0,6.0,87,0.00,,,0.00,Wunderground v.1.15,2013-06-19 09:51:00,
2013-06-19 04:52:00,76.0,72.2,29.80,South,189,5.0,6.0,88,0.00,,,0.00,Wunderground v.1.15,2013-06-19 09:52:00,
2013-06-19 04:53:00,76.0,72.2,29.80,South,186,4.0,6.0,88,0.00,,,0.00,Wunderground v.1.15,2013-06-19 09:53:00,
2013-06-19 04:56:00,75.8,72.0,29.80,South,181,5.0,6.0,88,0.00,,,0.00,Wunderground v.1.15,2013-06-19 09:56:00,
2013-06-19 04:57:00,75.8,72.0,29.80,SW,234,4.0,6.0,88,0.00,,,0.00,Wunderground v.1.15,2013-06-19 09:57:00,
2013-06-19 04:58:00,75.8,71.7,29.80,South,169,5.0,8.0,87,0.00,,,0.00,Wunderground v.1.15,2013-06-19 09:58:00,
2013-06-19 05:01:00,75.8,71.7,29.80,SSE,168,5.0,5.0,87,0.00,,,0.00,Wunderground v.1.15,2013-06-19 10:01:00,
2013-06-19 05:02:00,75.8,71.7,29.80,South,188,5.0,8.0,87,0.00,,,0.00,Wunderground v.1.15,2013-06-19 10:02:00,
2013-06-19 05:04:00,75.8,71.7,29.80,South,181,5.0,8.0,87,0.00,,,0.00,Wunderground v.1.15,2013-06-19 10:04:00,
2013-06-19 05:06:00,75.6,71.8,29.80,SSE,164,5.0,8.0,88,0.00,,,0.00,Wunderground v.1.15,2013-06-19 10:06:00,
2013-06-19 05:09:00,75.6,71.8,29.80,SSW,198,5.0,10.0,88,0.00,,,0.00,Wunderground v.1.15,2013-06-19 10:09:00,
2013-06-19 05:11:00,75.6,71.8,29.80,SSW,198,5.0,5.0,88,0.00,,,0.00,Wunderground v.1.15,2013-06-19 10:11:00,
2013-06-19 05:12:00,75.6,71.8,29.80,SSW,198,4.0,5.0,88,0.00,,,0.00,Wunderground v.1.15,2013-06-19 10:12:00,
2013-06-19 05:18:00,75.4,71.6,29.80,South,176,3.0,6.0,88,0.00,,,0.00,Wunderground v.1.15,2013-06-19 10:18:00,
2013-06-19 05:21:00,75.4,71.6,29.80,SSW,196,3.0,3.0,88,0.00,,,0.00,Wunderground v.1.15,2013-06-19 10:21:00,
2013-06-19 05:22:00,75.4,71.6,29.80,South,174,3.0,3.0,88,0.00,,,0.00,Wunderground v.1.15,2013-06-19 10:22:00,
2013-06-19 05:24:00,75.4,71.6,29.80,South,171,4.0,5.0,88,0.00,,,0.00,Wunderground v.1.15,2013-06-19 10:24:00,
2013-06-19 05:27:00,75.4,71.6,29.80,South,184,4.0,5.0,88,0.00,,,0.00,Wunderground v.1.15,2013-06-19 10:27:00,
2013-06-19 05:29:00,75.4,71.9,29.80,South,186,3.0,6.0,89,0.00,,,0.00,Wunderground v.1.15,2013-06-19 10:29:00,
2013-06-19 05:31:00,75.3,71.8,29.80,SSW,212,3.0,4.0,89,0.00,,,0.00,Wunderground v.1.15,2013-06-19 10:31:00,
2013-06-19 05:32:00,75.3,71.8,29.81,SSW,192,3.0,4.0,89,0.00,,,0.00,Wunderground v.1.15,2013-06-19 10:32:00,
2013-06-19 05:36:00,75.3,71.8,29.81,South,185,3.0,4.0,89,0.00,,,0.00,Wunderground v.1.15,2013-06-19 10:36:00,
2013-06-19 05:37:00,75.3,71.8,29.81,South,185,3.0,4.0,89,0.00,,,0.00,Wunderground v.1.15,2013-06-19 10:37:00,
2013-06-19 05:38:00,75.3,71.8,29.81,South,185,3.0,4.0,89,0.00,,,0.00,Wunderground v.1.15,2013-06-19 10:38:00,
2013-06-19 05:39:00,75.3,71.8,29.81,South,186,3.0,4.0,89,0.00,,,0.00,Wunderground v.1.15,2013-06-19 10:39:00,
2013-06-19 05:43:00,75.1,71.6,29.81,South,184,3.0,3.0,89,0.00,,,0.00,Wunderground v.1.15,2013-06-19 10:43:00,
2013-06-19 05:44:00,75.1,71.6,29.81,South,184,3.0,3.0,89,0.00,,,0.00,Wunderground v.1.15,2013-06-19 10:44:00,
2013-06-19 05:45:00,75.1,71.6,29.81,South,182,2.0,4.0,89,0.00,,,0.00,Wunderground v.1.15,2013-06-19 10:45:00,
2013-06-19 05:47:00,75.1,71.6,29.81,South,169,3.0,4.0,89,0.00,,,0.00,Wunderground v.1.15,2013-06-19 10:47:00,
2013-06-19 05:49:00,75.1,71.6,29.81,South,185,2.0,5.0,89,0.00,,,0.00,Wunderground v.1.15,2013-06-19 10:49:00,
2013-06-19 05:51:00,75.1,71.6,29.81,South,182,2.0,2.0,89,0.00,,,0.00,Wunderground v.1.15,2013-06-19 10:51:00,
2013-06-19 05:53:00,75.1,71.6,29.81,South,172,2.0,5.0,89,0.00,,,0.00,Wunderground v.1.15,2013-06-19 10:53:00,
2013-06-19 05:54:00,74.9,71.4,29.81,South,172,2.0,5.0,89,0.00,,,0.00,Wunderground v.1.15,2013-06-19 10:54:00,
2013-06-19 05:57:00,74.9,71.4,29.81,SSE,164,2.0,7.0,89,0.00,,,0.00,Wunderground v.1.15,2013-06-19 10:57:00,
2013-06-19 06:01:00,74.9,71.4,29.81,SSW,195,2.0,2.0,89,0.00,,,0.00,Wunderground v.1.15,2013-06-19 11:01:00,
2013-06-19 06:03:00,74.9,71.4,29.81,SSE,147,2.0,7.0,89,0.00,,,0.00,Wunderground v.1.15,2013-06-19 11:03:00,
2013-06-19 06:04:00,74.9,71.4,29.81,SSE,147,2.0,7.0,89,0.00,,,0.00,Wunderground v.1.15,2013-06-19 11:04:00,
2013-06-19 06:06:00,74.9,71.4,29.81,South,184,2.0,7.0,89,0.00,,,0.00,Wunderground v.1.15,2013-06-19 11:06:00,
2013-06-19 06:08:00,74.7,71.2,29.81,South,184,2.0,7.0,89,0.00,,,0.00,Wunderground v.1.15,2013-06-19 11:08:00,
2013-06-19 06:09:00,74.7,71.2,29.81,South,182,2.0,7.0,89,0.00,,,0.00,Wunderground v.1.15,2013-06-19 11:09:00,
2013-06-19 06:11:00,74.7,71.2,29.81,South,182,2.0,2.0,89,0.00,,,0.00,Wunderground v.1.15,2013-06-19 11:11:00,
2013-06-19 06:12:00,74.7,71.2,29.81,South,182,1.0,2.0,89,0.00,,,0.00,Wunderground v.1.15,2013-06-19 11:12:00,
2013-06-19 06:14:00,74.7,71.6,29.81,South,182,2.0,2.0,90,0.00,,,0.00,Wunderground v.1.15,2013-06-19 11:14:00,
2013-06-19 06:17:00,74.7,71.6,29.82,South,184,1.0,2.0,90,0.00,,,0.00,Wunderground v.1.15,2013-06-19 11:17:00,
2013-06-19 06:19:00,74.7,71.6,29.82,South,185,1.0,2.0,90,0.00,,,0.00,Wunderground v.1.15,2013-06-19 11:19:00,
2013-06-19 06:23:00,74.6,71.5,29.82,South,189,1.0,1.0,90,0.00,,,0.00,Wunderground v.1.15,2013-06-19 11:23:00,
2013-06-19 06:24:00,74.6,71.5,29.82,South,189,1.0,1.0,90,0.00,,,0.00,Wunderground v.1.15,2013-06-19 11:24:00,
2013-06-19 06:26:00,74.6,71.5,29.82,South,189,1.0,2.0,90,0.00,,,0.00,Wunderground v.1.15,2013-06-19 11:26:00,
2013-06-19 06:27:00,74.6,71.5,29.82,South,188,1.0,2.0,90,0.00,,,0.00,Wunderground v.1.15,2013-06-19 11:27:00,
2013-06-19 06:28:00,74.6,71.5,29.82,South,172,1.0,2.0,90,0.00,,,0.00,Wunderground v.1.15,2013-06-19 11:28:00,
2013-06-19 06:29:00,74.6,71.5,29.82,South,171,2.0,2.0,90,0.00,,,0.00,Wunderground v.1.15,2013-06-19 11:29:00,
2013-06-19 06:31:00,74.6,71.5,29.82,South,184,2.0,2.0,90,0.00,,,0.00,Wunderground v.1.15,2013-06-19 11:31:00,
2013-06-19 06:34:00,74.6,71.5,29.82,South,184,2.0,2.0,90,0.00,,,0.00,Wunderground v.1.15,2013-06-19 11:34:00,
2013-06-19 06:36:00,74.4,71.3,29.82,South,184,2.0,2.0,90,0.00,,,0.00,Wunderground v.1.15,2013-06-19 11:36:00,
2013-06-19 06:37:00,74.4,71.3,29.82,South,184,2.0,2.0,90,0.00,,,0.00,Wunderground v.1.15,2013-06-19 11:37:00,
2013-06-19 06:39:00,74.4,71.3,29.82,South,188,1.0,2.0,90,0.00,,,0.00,Wunderground v.1.15,2013-06-19 11:39:00,
2013-06-19 06:41:00,74.4,71.3,29.82,South,184,2.0,2.0,90,0.00,,,0.00,Wunderground v.1.15,2013-06-19 11:41:00,
2013-06-19 06:43:00,74.4,71.3,29.82,SSE,154,1.0,4.0,90,0.00,,,0.00,Wunderground v.1.15,2013-06-19 11:43:00,
2013-06-19 06:45:00,74.4,71.3,29.82,SSE,155,1.0,4.0,90,0.00,,,0.00,Wunderground v.1.15,2013-06-19 11:45:00,
2013-06-19 06:48:00,74.4,71.3,29.83,SSE,158,2.0,5.0,90,0.00,,,0.00,Wunderground v.1.15,2013-06-19 11:48:00,
2013-06-19 06:49:00,74.4,71.3,29.83,SSE,161,2.0,5.0,90,0.00,,,0.00,Wunderground v.1.15,2013-06-19 11:49:00,
2013-06-19 06:51:00,74.4,71.3,29.83,SSE,162,2.0,2.0,90,0.00,,,0.00,Wunderground v.1.15,2013-06-19 11:51:00,
2013-06-19 06:55:00,74.4,71.3,29.83,South,179,1.0,4.0,90,0.00,,,0.00,Wunderground v.1.15,2013-06-19 11:55:00,
2013-06-19 06:56:00,74.4,71.3,29.83,South,179,1.0,4.0,90,0.00,,,0.00,Wunderground v.1.15,2013-06-19 11:56:00,
2013-06-19 06:58:00,74.4,71.3,29.83,South,179,1.0,4.0,90,0.00,,,0.00,Wunderground v.1.15,2013-06-19 11:58:00,
2013-06-19 07:01:00,74.6,71.5,29.83,South,184,1.0,1.0,90,0.00,,,0.00,Wunderground v.1.15,2013-06-19 12:01:00,
2013-06-19 07:03:00,74.6,71.5,29.83,South,178,2.0,3.0,90,0.00,,,0.00,Wunderground v.1.15,2013-06-19 12:03:00,
2013-06-19 07:06:00,74.6,71.5,29.83,South,189,2.0,5.0,90,0.00,,,0.00,Wunderground v.1.15,2013-06-19 12:06:00,
2013-06-19 07:09:00,74.6,71.5,29.83,South,188,3.0,5.0,90,0.00,,,0.00,Wunderground v.1.15,2013-06-19 12:09:00,
2013-06-19 07:11:00,74.6,71.1,29.83,South,184,3.0,3.0,89,0.00,,,0.00,Wunderground v.1.15,2013-06-19 12:11:00,
2013-06-19 07:15:00,74.6,71.1,29.83,South,184,2.0,4.0,89,0.00,,,0.00,Wunderground v.1.15,2013-06-19 12:15:00,
2013-06-19 07:16:00,74.6,71.1,29.83,South,184,2.0,6.0,89,0.00,,,0.00,Wunderground v.1.15,2013-06-19 12:16:00,
2013-06-19 07:18:00,74.6,71.1,29.84,South,186,2.0,6.0,89,0.00,,,0.00,Wunderground v.1.15,2013-06-19 12:18:00,
2013-06-19 07:19:00,74.6,71.1,29.84,South,186,2.0,6.0,89,0.00,,,0.00,Wunderground v.1.15,2013-06-19 12:19:00,
2013-06-19 07:21:00,74.6,71.1,29.84,SSW,199,2.0,3.0,89,0.00,,,0.00,Wunderground v.1.15,2013-06-19 12:21:00,
2013-06-19 07:22:00,74.6,71.1,29.84,South,184,2.0,6.0,89,0.00,,,0.00,Wunderground v.1.15,2013-06-19 12:22:00,
2013-06-19 07:24:00,74.6,71.1,29.84,SSE,164,3.0,6.0,89,0.00,,,0.00,Wunderground v.1.15,2013-06-19 12:24:00,
2013-06-19 07:25:00,74.6,71.1,29.84,South,181,3.0,6.0,89,0.00,,,0.00,Wunderground v.1.15,2013-06-19 12:25:00,
2013-06-19 07:27:00,74.7,71.2,29.84,SSW,202,3.0,6.0,89,0.00,,,0.00,Wunderground v.1.15,2013-06-19 12:27:00,
2013-06-19 07:29:00,74.7,71.2,29.84,South,191,3.0,6.0,89,0.00,,,0.00,Wunderground v.1.15,2013-06-19 12:29:00,
2013-06-19 07:31:00,74.7,71.2,29.84,South,191,3.0,3.0,89,0.00,,,0.00,Wunderground v.1.15,2013-06-19 12:31:00,
2013-06-19 07:33:00,74.9,71.4,29.84,South,186,3.0,5.0,89,0.00,,,0.00,Wunderground v.1.15,2013-06-19 12:33:00,
2013-06-19 07:36:00,74.9,71.1,29.84,South,175,3.0,6.0,88,0.00,,,0.00,Wunderground v.1.15,2013-06-19 12:36:00,
2013-06-19 07:37:00,74.9,71.1,29.84,South,191,3.0,6.0,88,0.00,,,0.00,Wunderground v.1.15,2013-06-19 12:37:00,
2013-06-19 07:38:00,75.1,71.3,29.84,South,178,3.0,6.0,88,0.00,,,0.00,Wunderground v.1.15,2013-06-19 12:38:00,
2013-06-19 07:41:00,75.1,71.3,29.84,SSE,151,4.0,6.0,88,0.00,,,0.00,Wunderground v.1.15,2013-06-19 12:41:00,
2013-06-19 07:43:00,75.1,71.3,29.84,South,178,4.0,6.0,88,0.00,,,0.00,Wunderground v.1.15,2013-06-19 12:43:00,
2013-06-19 07:44:00,75.1,71.3,29.84,SSE,162,4.0,8.0,88,0.00,,,0.00,Wunderground v.1.15,2013-06-19 12:44:00,
2013-06-19 07:46:00,75.1,71.3,29.84,SSE,162,4.0,8.0,88,0.00,,,0.00,Wunderground v.1.15,2013-06-19 12:46:00,
2013-06-19 07:51:00,75.1,71.0,29.84,SW,233,4.0,4.0,87,0.00,,,0.00,Wunderground v.1.15,2013-06-19 12:51:00,
2013-06-19 07:52:00,75.1,71.0,29.84,South,178,4.0,8.0,87,0.00,,,0.00,Wunderground v.1.15,2013-06-19 12:52:00,
2013-06-19 07:53:00,75.1,71.0,29.84,SSE,167,4.0,8.0,87,0.00,,,0.00,Wunderground v.1.15,2013-06-19 12:53:00,
2013-06-19 07:56:00,75.1,71.0,29.84,South,182,5.0,8.0,87,0.00,,,0.00,Wunderground v.1.15,2013-06-19 12:56:00,
2013-06-19 07:59:00,75.3,70.8,29.84,SSW,193,5.0,11.0,86,0.00,,,0.00,Wunderground v.1.15,2013-06-19 12:59:00,
2013-06-19 08:01:00,75.3,70.8,29.84,SE,145,5.0,5.0,86,0.00,,,0.00,Wunderground v.1.15,2013-06-19 13:01:00,
2013-06-19 08:02:00,75.3,70.8,29.85,South,181,5.0,5.0,86,0.00,,,0.00,Wunderground v.1.15,2013-06-19 13:02:00,
2013-06-19 08:05:00,75.4,70.9,29.85,SSW,195,4.0,5.0,86,0.00,,,0.00,Wunderground v.1.15,2013-06-19 13:05:00,
2013-06-19 08:07:00,75.4,70.9,29.85,SSW,193,4.0,6.0,86,0.00,,,0.00,Wunderground v.1.15,2013-06-19 13:07:00,
2013-06-19 08:08:00,75.6,71.1,29.85,SSW,198,4.0,6.0,86,0.00,,,0.00,Wunderground v.1.15,2013-06-19 13:08:00,
2013-06-19 08:11:00,75.6,71.1,29.85,South,171,3.0,7.0,86,0.00,,,0.00,Wunderground v.1.15,2013-06-19 13:11:00,
2013-06-19 08:14:00,75.6,70.8,29.85,South,175,4.0,8.0,85,0.00,,,0.00,Wunderground v.1.15,2013-06-19 13:14:00,
2013-06-19 08:15:00,75.8,71.0,29.85,SSW,192,4.0,8.0,85,0.00,,,0.00,Wunderground v.1.15,2013-06-19 13:15:00,
2013-06-19 08:16:00,75.8,71.0,29.85,SSW,195,4.0,8.0,85,0.00,,,0.00,Wunderground v.1.15,2013-06-19 13:16:00,
2013-06-19 08:18:00,75.8,70.6,29.86,South,188,4.0,8.0,84,0.00,,,0.00,Wunderground v.1.15,2013-06-19 13:18:00,
2013-06-19 08:19:00,76.0,70.8,29.86,South,171,4.0,10.0,84,0.00,,,0.00,Wunderground v.1.15,2013-06-19 13:19:00,
2013-06-19 08:23:00,76.1,69.8,29.86,SSE,165,5.0,11.0,81,0.00,,,0.00,Wunderground v.1.15,2013-06-19 13:23:00,
2013-06-19 08:24:00,76.1,69.8,29.86,West,261,5.0,11.0,81,0.00,,,0.00,Wunderground v.1.15,2013-06-19 13:24:00,
2013-06-19 08:26:00,76.3,70.0,29.86,SSW,212,5.0,11.0,81,0.00,,,0.00,Wunderground v.1.15,2013-06-19 13:26:00,
2013-06-19 08:28:00,76.5,69.9,29.86,South,169,5.0,11.0,80,0.00,,,0.00,Wunderground v.1.15,2013-06-19 13:28:00,
2013-06-19 08:29:00,76.5,69.9,29.86,SE,131,5.0,11.0,80,0.00,,,0.00,Wunderground v.1.15,2013-06-19 13:29:00,
2013-06-19 08:31:00,76.5,69.9,29.86,SSW,192,5.0,6.0,80,0.00,,,0.00,Wunderground v.1.15,2013-06-19 13:31:00,
2013-06-19 08:32:00,76.5,69.9,29.86,South,181,5.0,6.0,80,0.00,,,0.00,Wunderground v.1.15,2013-06-19 13:32:00,
2013-06-19 08:34:00,76.5,69.9,29.86,South,188,4.0,6.0,80,0.00,,,0.00,Wunderground v.1.15,2013-06-19 13:34:00,
2013-06-19 08:35:00,76.7,70.1,29.86,South,191,4.0,6.0,80,0.00,,,0.00,Wunderground v.1.15,2013-06-19 13:35:00,
2013-06-19 08:36:00,76.7,70.1,29.86,South,191,4.0,6.0,80,0.00,,,0.00,Wunderground v.1.15,2013-06-19 13:36:00,
2013-06-19 08:39:00,76.7,70.1,29.86,SSE,160,4.0,9.0,80,0.00,,,0.00,Wunderground v.1.15,2013-06-19 13:39:00,
2013-06-19 08:41:00,76.7,69.7,29.86,SSW,208,4.0,6.0,79,0.00,,,0.00,Wunderground v.1.15,2013-06-19 13:41:00,
2013-06-19 08:44:00,76.7,69.7,29.86,SSW,206,5.0,6.0,79,0.00,,,0.00,Wunderground v.1.15,2013-06-19 13:44:00,
2013-06-19 08:45:00,76.8,69.8,29.86,SSE,162,6.0,6.0,79,0.00,,,0.00,Wunderground v.1.15,2013-06-19 13:45:00,
2013-06-19 08:46:00,76.8,69.8,29.86,ESE,123,6.0,6.0,79,0.00,,,0.00,Wunderground v.1.15,2013-06-19 13:46:00,
2013-06-19 08:50:00,77.0,69.2,29.86,South,186,6.0,11.0,77,0.00,,,0.00,Wunderground v.1.15,2013-06-19 13:50:00,
2013-06-19 08:51:00,77.2,69.4,29.86,South,174,6.0,6.0,77,0.00,,,0.00,Wunderground v.1.15,2013-06-19 13:51:00,
2013-06-19 08:53:00,77.4,69.6,29.86,SE,137,6.0,6.0,77,0.00,,,0.00,Wunderground v.1.15,2013-06-19 13:53:00,
2013-06-19 08:54:00,77.4,69.6,29.86,SE,143,5.0,9.0,77,0.00,,,0.00,Wunderground v.1.15,2013-06-19 13:54:00,
2013-06-19 08:58:00,77.6,69.4,29.86,SSE,150,5.0,9.0,76,0.00,,,0.00,Wunderground v.1.15,2013-06-19 13:58:00,
2013-06-19 08:59:00,77.7,69.5,29.86,SSW,210,5.0,9.0,76,0.00,,,0.00,Wunderground v.1.15,2013-06-19 13:59:00,
2013-06-19 09:00:00,77.7,69.5,29.86,South,172,5.0,5.0,76,0.00,,,0.00,Wunderground v.1.15,2013-06-19 14:00:00,
2013-06-19 09:02:00,77.7,69.5,29.86,SSW,195,5.0,5.0,76,0.00,,,0.00,Wunderground v.1.15,2013-06-19 14:02:00,
2013-06-19 09:04:00,78.1,69.9,29.86,SSE,164,5.0,7.0,76,0.00,,,0.00,Wunderground v.1.15,2013-06-19 14:04:00,
2013-06-19 09:05:00,77.9,69.7,29.86,South,185,6.0,7.0,76,0.00,,,0.00,Wunderground v.1.15,2013-06-19 14:05:00,
2013-06-19 09:06:00,78.1,69.9,29.86,South,189,6.0,10.0,76,0.00,,,0.00,Wunderground v.1.15,2013-06-19 14:06:00,
2013-06-19 09:07:00,78.1,69.9,29.86,South,188,6.0,10.0,76,0.00,,,0.00,Wunderground v.1.15,2013-06-19 14:07:00,
2013-06-19 09:09:00,78.1,69.9,29.86,SSE,157,5.0,10.0,76,0.00,,,0.00,Wunderground v.1.15,2013-06-19 14:09:00,
2013-06-19 09:11:00,77.9,69.3,29.86,SE,145,6.0,11.0,75,0.00,,,0.00,Wunderground v.1.15,2013-06-19 14:11:00,
2013-06-19 09:13:00,77.9,69.7,29.86,SSE,158,6.0,11.0,76,0.00,,,0.00,Wunderground v.1.15,2013-06-19 14:13:00,
2013-06-19 09:14:00,77.7,69.5,29.86,South,181,6.0,11.0,76,0.00,,,0.00,Wunderground v.1.15,2013-06-19 14:14:00,
2013-06-19 09:16:00,77.7,69.9,29.86,SSW,195,6.0,11.0,77,0.00,,,0.00,Wunderground v.1.15,2013-06-19 14:16:00,
2013-06-19 09:18:00,77.7,69.5,29.86,South,181,6.0,11.0,76,0.00,,,0.00,Wunderground v.1.15,2013-06-19 14:18:00,
2013-06-19 09:19:00,77.7,69.5,29.86,SW,232,6.0,11.0,76,0.00,,,0.00,Wunderground v.1.15,2013-06-19 14:19:00,
2013-06-19 09:21:00,77.7,69.5,29.86,SW,220,6.0,6.0,76,0.00,,,0.00,Wunderground v.1.15,2013-06-19 14:21:00,
2013-06-19 09:24:00,77.9,70.1,29.86,SSW,193,6.0,6.0,77,0.00,,,0.00,Wunderground v.1.15,2013-06-19 14:24:00,
2013-06-19 09:25:00,78.1,70.3,29.86,SSE,160,6.0,6.0,77,0.00,,,0.00,Wunderground v.1.15,2013-06-19 14:25:00,
2013-06-19 09:26:00,78.3,70.1,29.86,SW,227,5.0,6.0,76,0.00,,,0.00,Wunderground v.1.15,2013-06-19 14:26:00,
2013-06-19 09:27:00,78.3,70.1,29.86,SSW,213,5.0,11.0,76,0.00,,,0.00,Wunderground v.1.15,2013-06-19 14:27:00,
2013-06-19 09:29:00,78.6,70.4,29.86,SSE,158,5.0,11.0,76,0.00,,,0.00,Wunderground v.1.15,2013-06-19 14:29:00,
2013-06-19 09:30:00,78.6,70.0,29.86,SSE,165,5.0,5.0,75,0.00,,,0.00,Wunderground v.1.15,2013-06-19 14:30:00,
2013-06-19 09:31:00,78.6,70.0,29.86,South,185,5.0,11.0,75,0.00,,,0.00,Wunderground v.1.15,2013-06-19 14:31:00,
2013-06-19 09:33:00,78.6,70.0,29.86,SSE,157,6.0,11.0,75,0.00,,,0.00,Wunderground v.1.15,2013-06-19 14:33:00,
2013-06-19 09:34:00,78.8,70.2,29.86,SSE,160,6.0,11.0,75,0.00,,,0.00,Wunderground v.1.15,2013-06-19 14:34:00,
2013-06-19 09:36:00,78.8,70.2,29.86,SSE,154,7.0,11.0,75,0.00,,,0.00,Wunderground v.1.15,2013-06-19 14:36:00,
2013-06-19 09:37:00,78.8,70.2,29.86,SSE,162,7.0,11.0,75,0.00,,,0.00,Wunderground v.1.15,2013-06-19 14:37:00,
2013-06-19 09:39:00,78.6,70.0,29.86,SSW,199,7.0,11.0,75,0.00,,,0.00,Wunderground v.1.15,2013-06-19 14:39:00,
2013-06-19 09:44:00,78.6,70.4,29.86,WSW,243,7.0,13.0,76,0.00,,,0.00,Wunderground v.1.15,2013-06-19 14:44:00,
2013-06-19 09:45:00,78.6,70.0,29.86,South,178,7.0,13.0,75,0.00,,,0.00,Wunderground v.1.15,2013-06-19 14:45:00,
2013-06-19 09:46:00,78.6,70.4,29.86,SSW,209,7.0,13.0,76,0.00,,,0.00,Wunderground v.1.15,2013-06-19 14:46:00,
2013-06-19 09:50:00,78.6,70.0,29.86,South,185,6.0,7.0,75,0.00,,,0.00,Wunderground v.1.15,2013-06-19 14:50:00,
2013-06-19 09:51:00,78.6,70.0,29.86,SSW,200,6.0,7.0,75,0.00,,,0.00,Wunderground v.1.15,2013-06-19 14:51:00,
2013-06-19 09:52:00,78.6,70.0,29.86,SSW,209,5.0,7.0,75,0.00,,,0.00,Wunderground v.1.15,2013-06-19 14:52:00,
2013-06-19 09:54:00,78.6,70.0,29.86,SSW,212,5.0,8.0,75,0.00,,,0.00,Wunderground v.1.15,2013-06-19 14:54:00,
2013-06-19 09:55:00,78.6,70.0,29.86,SSW,205,5.0,8.0,75,0.00,,,0.00,Wunderground v.1.15,2013-06-19 14:55:00,
2013-06-19 09:57:00,78.8,70.2,29.86,SW,223,5.0,11.0,75,0.00,,,0.00,Wunderground v.1.15,2013-06-19 14:57:00,
2013-06-19 10:00:00,79.0,70.4,29.86,SW,216,5.0,5.0,75,0.00,,,0.00,Wunderground v.1.15,2013-06-19 15:00:00,
2013-06-19 10:01:00,79.0,70.4,29.86,SW,220,5.0,6.0,75,0.00,,,0.00,Wunderground v.1.15,2013-06-19 15:01:00,
2013-06-19 10:02:00,79.0,70.4,29.86,SSW,193,5.0,6.0,75,0.00,,,0.00,Wunderground v.1.15,2013-06-19 15:02:00,
2013-06-19 10:05:00,78.8,69.8,29.86,SW,219,6.0,7.0,74,0.00,,,0.00,Wunderground v.1.15,2013-06-19 15:05:00,
2013-06-19 10:06:00,78.8,69.8,29.86,SSW,199,6.0,7.0,74,0.00,,,0.00,Wunderground v.1.15,2013-06-19 15:06:00,
2013-06-19 10:07:00,78.8,69.8,29.86,WSW,241,6.0,7.0,74,0.00,,,0.00,Wunderground v.1.15,2013-06-19 15:07:00,
2013-06-19 10:10:00,79.0,70.0,29.86,SSW,198,6.0,6.0,74,0.00,,,0.00,Wunderground v.1.15,2013-06-19 15:10:00,
2013-06-19 10:12:00,79.2,70.2,29.86,SW,224,6.0,6.0,74,0.00,,,0.00,Wunderground v.1.15,2013-06-19 15:12:00,
2013-06-19 10:14:00,79.2,69.8,29.86,SW,215,5.0,7.0,73,0.00,,,0.00,Wunderground v.1.15,2013-06-19 15:14:00,
2013-06-19 10:16:00,79.2,70.2,29.86,SW,234,5.0,7.0,74,0.00,,,0.00,Wunderground v.1.15,2013-06-19 15:16:00,
2013-06-19 10:17:00,79.2,70.2,29.86,WSW,250,4.0,7.0,74,0.00,,,0.00,Wunderground v.1.15,2013-06-19 15:17:00,
2013-06-19 10:22:00,79.8,70.8,29.86,SSE,150,4.0,5.0,74,0.00,,,0.00,Wunderground v.1.15,2013-06-19 15:22:00,
2013-06-19 10:23:00,79.8,70.4,29.86,South,191,4.0,5.0,73,0.00,,,0.00,Wunderground v.1.15,2013-06-19 15:23:00,
2013-06-19 10:25:00,80.1,70.7,29.86,SSE,160,4.0,5.0,73,0.00,,,0.00,Wunderground v.1.15,2013-06-19 15:25:00,
2013-06-19 10:26:00,80.3,70.4,29.86,SSE,168,4.0,10.0,72,0.00,,,0.00,Wunderground v.1.15,2013-06-19 15:26:00,
2013-06-19 10:27:00,80.3,70.4,29.86,SSW,200,5.0,10.0,72,0.00,,,0.00,Wunderground v.1.15,2013-06-19 15:27:00,
2013-06-19 10:30:00,80.9,70.6,29.86,SSW,213,5.0,5.0,71,0.00,,,0.00,Wunderground v.1.15,2013-06-19 15:30:00,
2013-06-19 10:32:00,81.2,70.9,29.86,SSW,192,4.0,5.0,71,0.00,,,0.00,Wunderground v.1.15,2013-06-19 15:32:00,
2013-06-19 10:33:00,81.2,70.1,29.86,South,181,4.0,5.0,69,0.00,,,0.00,Wunderground v.1.15,2013-06-19 15:33:00,
2013-06-19 10:34:00,81.2,70.1,29.86,SW,223,4.0,5.0,69,0.00,,,0.00,Wunderground v.1.15,2013-06-19 15:34:00,
2013-06-19 10:37:00,81.6,70.4,29.86,SSE,150,4.0,8.0,69,0.00,,,0.00,Wunderground v.1.15,2013-06-19 15:37:00,
2013-06-19 10:39:00,81.4,70.2,29.86,SE,138,5.0,8.0,69,0.00,,,0.00,Wunderground v.1.15,2013-06-19 15:39:00,
2013-06-19 10:40:00,81.6,70.4,29.86,South,185,5.0,7.0,69,0.00,,,0.00,Wunderground v.1.15,2013-06-19 15:40:00,
2013-06-19 10:42:00,81.6,70.4,29.86,ESE,123,6.0,7.0,69,0.00,,,0.00,Wunderground v.1.15,2013-06-19 15:42:00,
2013-06-19 10:43:00,81.6,70.0,29.86,South,189,5.0,10.0,68,0.00,,,0.00,Wunderground v.1.15,2013-06-19 15:43:00,
2013-06-19 10:45:00,81.6,70.4,29.86,South,188,6.0,13.0,69,0.00,,,0.00,Wunderground v.1.15,2013-06-19 15:45:00,
2013-06-19 10:48:00,81.6,70.4,29.85,SSE,164,6.0,13.0,69,0.00,,,0.00,Wunderground v.1.15,2013-06-19 15:48:00,
2013-06-19 10:50:00,81.8,69.8,29.85,SE,130,6.0,13.0,67,0.00,,,0.00,Wunderground v.1.15,2013-06-19 15:50:00,
2013-06-19 10:51:00,81.8,69.8,29.85,SSE,152,6.0,6.0,67,0.00,,,0.00,Wunderground v.1.15,2013-06-19 15:51:00,
2013-06-19 10:53:00,82.2,70.6,29.85,South,188,5.0,6.0,68,0.00,,,0.00,Wunderground v.1.15,2013-06-19 15:53:00,
2013-06-19 10:55:00,82.2,70.6,29.85,South,185,5.0,8.0,68,0.00,,,0.00,Wunderground v.1.15,2013-06-19 15:55:00,
2013-06-19 10:56:00,82.4,70.3,29.85,South,169,5.0,11.0,67,0.00,,,0.00,Wunderground v.1.15,2013-06-19 15:56:00,
2013-06-19 10:57:00,82.2,70.1,29.85,South,186,5.0,11.0,67,0.00,,,0.00,Wunderground v.1.15,2013-06-19 15:57:00,
2013-06-19 11:00:00,82.0,70.4,29.85,SE,136,5.0,10.0,68,0.00,,,0.00,Wunderground v.1.15,2013-06-19 16:00:00,
2013-06-19 11:01:00,82.2,70.6,29.85,SSE,151,5.0,10.0,68,0.00,,,0.00,Wunderground v.1.15,2013-06-19 16:01:00,
2013-06-19 11:02:00,82.2,70.6,29.85,SE,136,5.0,10.0,68,0.00,,,0.00,Wunderground v.1.15,2013-06-19 16:02:00,
2013-06-19 11:06:00,82.6,70.1,29.85,SSW,208,5.0,10.0,66,0.00,,,0.00,Wunderground v.1.15,2013-06-19 16:06:00,
2013-06-19 11:10:00,83.2,70.7,29.85,SSW,203,4.0,4.0,66,0.00,,,0.00,Wunderground v.1.15,2013-06-19 16:10:00,
2013-06-19 11:11:00,83.2,70.7,29.85,SW,217,4.0,5.0,66,0.00,,,0.00,Wunderground v.1.15,2013-06-19 16:11:00,
2013-06-19 11:15:00,83.0,70.0,29.85,SW,215,4.0,8.0,65,0.00,,,0.00,Wunderground v.1.15,2013-06-19 16:15:00,
2013-06-19 11:16:00,83.0,70.0,29.85,South,172,4.0,8.0,65,0.00,,,0.00,Wunderground v.1.15,2013-06-19 16:16:00,
2013-06-19 11:17:00,82.8,69.4,29.86,South,185,5.0,8.0,64,0.00,,,0.00,Wunderground v.1.15,2013-06-19 16:17:00,
2013-06-19 11:20:00,83.4,70.4,29.86,SSW,198,5.0,10.0,65,0.00,,,0.00,Wunderground v.1.15,2013-06-19 16:20:00,
2013-06-19 11:21:00,83.4,70.4,29.86,SW,222,5.0,10.0,65,0.00,,,0.00,Wunderground v.1.15,2013-06-19 16:21:00,
2013-06-19 11:24:00,83.6,71.0,29.86,South,188,5.0,10.0,66,0.00,,,0.00,Wunderground v.1.15,2013-06-19 16:24:00,
2013-06-19 11:26:00,83.6,71.0,29.86,SW,222,5.0,10.0,66,0.00,,,0.00,Wunderground v.1.15,2013-06-19 16:26:00,
2013-06-19 11:29:00,83.8,70.8,29.86,ESE,119,5.0,10.0,65,0.00,,,0.00,Wunderground v.1.15,2013-06-19 16:29:00,
2013-06-19 11:30:00,83.8,70.3,29.86,SE,130,5.0,8.0,64,0.00,,,0.00,Wunderground v.1.15,2013-06-19 16:30:00,
2013-06-19 11:31:00,83.8,70.3,29.85,SE,133,5.0,8.0,64,0.00,,,0.00,Wunderground v.1.15,2013-06-19 16:31:00,
2013-06-19 11:35:00,83.8,70.3,29.85,SE,138,4.0,8.0,64,0.00,,,0.00,Wunderground v.1.15,2013-06-19 16:35:00,
2013-06-19 11:37:00,83.8,70.3,29.85,South,184,4.0,8.0,64,0.00,,,0.00,Wunderground v.1.15,2013-06-19 16:37:00,
2013-06-19 11:40:00,83.8,70.8,29.85,SSW,212,4.0,5.0,65,0.00,,,0.00,Wunderground v.1.15,2013-06-19 16:40:00,
2013-06-19 11:41:00,83.8,70.8,29.85,SW,230,3.0,5.0,65,0.00,,,0.00,Wunderground v.1.15,2013-06-19 16:41:00,
2013-06-19 11:45:00,84.1,71.1,29.85,SSW,199,3.0,5.0,65,0.00,,,0.00,Wunderground v.1.15,2013-06-19 16:45:00,
2013-06-19 11:46:00,84.1,70.6,29.85,SSW,200,3.0,5.0,64,0.00,,,0.00,Wunderground v.1.15,2013-06-19 16:46:00,
2013-06-19 11:47:00,84.1,70.1,29.86,SSW,196,3.0,5.0,63,0.00,,,0.00,Wunderground v.1.15,2013-06-19 16:47:00,
2013-06-19 11:50:00,84.3,70.3,29.86,SSW,198,3.0,5.0,63,0.00,,,0.00,Wunderground v.1.15,2013-06-19 16:50:00,
2013-06-19 11:52:00,84.3,70.8,29.86,SSW,198,3.0,5.0,64,0.00,,,0.00,Wunderground v.1.15,2013-06-19 16:52:00,
2013-06-19 11:53:00,84.5,71.4,29.86,SSW,205,3.0,5.0,65,0.00,,,0.00,Wunderground v.1.15,2013-06-19 16:53:00,
2013-06-19 11:55:00,84.9,71.4,29.86,SW,233,3.0,5.0,64,0.00,,,0.00,Wunderground v.1.15,2013-06-19 16:55:00,
2013-06-19 11:57:00,85.1,70.1,29.86,SSW,193,3.0,9.0,61,0.00,,,0.00,Wunderground v.1.15,2013-06-19 16:57:00,
2013-06-19 12:01:00,84.9,70.4,29.86,SW,229,3.0,8.0,62,0.00,,,0.00,Wunderground v.1.15,2013-06-19 17:01:00,
2013-06-19 12:02:00,84.7,70.2,29.85,South,185,4.0,10.0,62,0.00,,,0.00,Wunderground v.1.15,2013-06-19 17:02:00,
2013-06-19 12:05:00,84.9,69.9,29.85,South,191,5.0,10.0,61,0.00,,,0.00,Wunderground v.1.15,2013-06-19 17:05:00,
2013-06-19 12:07:00,85.1,70.1,29.85,SE,145,5.0,10.0,61,0.00,,,0.00,Wunderground v.1.15,2013-06-19 17:07:00,
2013-06-19 12:09:00,84.9,69.9,29.85,SSE,152,5.0,10.0,61,0.00,,,0.00,Wunderground v.1.15,2013-06-19 17:09:00,
2013-06-19 12:11:00,84.9,69.5,29.85,SSE,168,5.0,6.0,60,0.00,,,0.00,Wunderground v.1.15,2013-06-19 17:11:00,
2013-06-19 12:13:00,85.1,70.1,29.85,SSW,212,4.0,6.0,61,0.00,,,0.00,Wunderground v.1.15,2013-06-19 17:13:00,
2013-06-19 12:14:00,85.3,70.3,29.85,SW,220,4.0,7.0,61,0.00,,,0.00,Wunderground v.1.15,2013-06-19 17:14:00,
2013-06-19 12:15:00,85.3,70.3,29.85,SW,222,4.0,7.0,61,0.00,,,0.00,Wunderground v.1.15,2013-06-19 17:15:00,
2013-06-19 12:16:00,85.5,70.5,29.85,ESE,107,4.0,7.0,61,0.00,,,0.00,Wunderground v.1.15,2013-06-19 17:16:00,
2013-06-19 12:20:00,85.5,69.0,29.85,South,178,5.0,7.0,58,0.00,,,0.00,Wunderground v.1.15,2013-06-19 17:20:00,
2013-06-19 12:21:00,85.5,68.5,29.85,SSE,164,5.0,8.0,57,0.00,,,0.00,Wunderground v.1.15,2013-06-19 17:21:00,
2013-06-19 12:24:00,85.3,69.8,29.85,SSW,202,5.0,8.0,60,0.00,,,0.00,Wunderground v.1.15,2013-06-19 17:24:00,
2013-06-19 12:25:00,85.5,69.5,29.85,SSE,151,5.0,8.0,59,0.00,,,0.00,Wunderground v.1.15,2013-06-19 17:25:00,
2013-06-19 12:27:00,85.5,69.0,29.85,SSE,164,6.0,10.0,58,0.00,,,0.00,Wunderground v.1.15,2013-06-19 17:27:00,
2013-06-19 12:28:00,85.5,69.0,29.85,SSE,167,6.0,10.0,58,0.00,,,0.00,Wunderground v.1.15,2013-06-19 17:28:00,
2013-06-19 12:30:00,85.5,68.5,29.85,South,186,5.0,10.0,57,0.00,,,0.00,Wunderground v.1.15,2013-06-19 17:30:00,
2013-06-19 12:33:00,85.9,69.4,29.85,SSE,148,5.0,7.0,58,0.00,,,0.00,Wunderground v.1.15,2013-06-19 17:33:00,
2013-06-19 12:36:00,86.1,69.6,29.85,SSE,162,4.0,7.0,58,0.00,,,0.00,Wunderground v.1.15,2013-06-19 17:36:00,
2013-06-19 12:38:00,85.9,69.4,29.85,ESE,112,4.0,8.0,58,0.00,,,0.00,Wunderground v.1.15,2013-06-19 17:38:00,
2013-06-19 12:41:00,85.9,68.4,29.85,SSW,206,4.0,8.0,56,0.00,,,0.00,Wunderground v.1.15,2013-06-19 17:41:00,
2013-06-19 12:42:00,86.1,69.1,29.85,SSW,213,4.0,8.0,57,0.00,,,0.00,Wunderground v.1.15,2013-06-19 17:42:00,
2013-06-19 12:43:00,86.1,68.6,29.85,SW,223,5.0,8.0,56,0.00,,,0.00,Wunderground v.1.15,2013-06-19 17:43:00,
2013-06-19 12:46:00,86.5,69.5,29.84,SSW,199,5.0,10.0,57,0.00,,,0.00,Wunderground v.1.15,2013-06-19 17:46:00,
2013-06-19 12:47:00,86.5,68.9,29.84,South,175,4.0,10.0,56,0.00,,,0.00,Wunderground v.1.15,2013-06-19 17:47:00,
2013-06-19 12:48:00,86.7,69.1,29.84,SW,217,4.0,10.0,56,0.00,,,0.00,Wunderground v.1.15,2013-06-19 17:48:00,
2013-06-19 12:51:00,86.7,69.1,29.84,WSW,241,4.0,4.0,56,0.00,,,0.00,Wunderground v.1.15,2013-06-19 17:51:00,
2013-06-19 12:52:00,86.7,69.6,29.84,SSW,200,4.0,7.0,57,0.00,,,0.00,Wunderground v.1.15,2013-06-19 17:52:00,
2013-06-19 12:54:00,87.2,69.6,29.84,SSW,202,4.0,7.0,56,0.00,,,0.00,Wunderground v.1.15,2013-06-19 17:54:00,
2013-06-19 12:56:00,87.4,69.3,29.84,SSW,205,4.0,7.0,55,0.00,,,0.00,Wunderground v.1.15,2013-06-19 17:56:00,
2013-06-19 13:00:00,88.0,69.8,29.84,SSW,209,3.0,3.0,55,0.00,,,0.00,Wunderground v.1.15,2013-06-19 18:00:00,
2013-06-19 13:01:00,88.2,69.5,29.83,SW,229,3.0,7.0,54,0.00,,,0.00,Wunderground v.1.15,2013-06-19 18:01:00,
2013-06-19 13:04:00,88.2,70.0,29.83,SE,131,3.0,7.0,55,0.00,,,0.00,Wunderground v.1.15,2013-06-19 18:04:00,
2013-06-19 13:05:00,88.2,70.0,29.83,SE,141,3.0,7.0,55,0.00,,,0.00,Wunderground v.1.15,2013-06-19 18:05:00,
2013-06-19 13:07:00,87.6,68.9,29.83,SE,127,4.0,7.0,54,0.00,,,0.00,Wunderground v.1.15,2013-06-19 18:07:00,
2013-06-19 13:08:00,87.4,69.8,29.83,ESE,119,4.0,10.0,56,0.00,,,0.00,Wunderground v.1.15,2013-06-19 18:08:00,
2013-06-19 13:11:00,87.4,69.3,29.83,SE,136,5.0,5.0,55,0.00,,,0.00,Wunderground v.1.15,2013-06-19 18:11:00,
2013-06-19 13:13:00,87.2,69.1,29.83,ESE,121,5.0,8.0,55,0.00,,,0.00,Wunderground v.1.15,2013-06-19 18:13:00,
2013-06-19 13:14:00,87.2,69.1,29.83,SSE,158,5.0,8.0,55,0.00,,,0.00,Wunderground v.1.15,2013-06-19 18:14:00,
2013-06-19 13:17:00,87.0,69.4,29.83,ESE,121,4.0,8.0,56,0.00,,,0.00,Wunderground v.1.15,2013-06-19 18:17:00,
2013-06-19 13:20:00,87.4,70.3,29.83,SE,137,3.0,6.0,57,0.00,,,0.00,Wunderground v.1.15,2013-06-19 18:20:00,
2013-06-19 13:21:00,87.6,68.9,29.83,SE,140,3.0,6.0,54,0.00,,,0.00,Wunderground v.1.15,2013-06-19 18:21:00,
2013-06-19 13:23:00,88.0,68.7,29.83,SE,138,3.0,6.0,53,0.00,,,0.00,Wunderground v.1.15,2013-06-19 18:23:00,
2013-06-19 13:25:00,87.6,68.4,29.83,SE,136,4.0,10.0,53,0.00,,,0.00,Wunderground v.1.15,2013-06-19 18:25:00,
2013-06-19 13:27:00,87.2,68.5,29.83,ESE,109,5.0,11.0,54,0.00,,,0.00,Wunderground v.1.15,2013-06-19 18:27:00,
2013-06-19 13:28:00,87.0,68.9,29.83,ESE,117,5.0,11.0,55,0.00,,,0.00,Wunderground v.1.15,2013-06-19 18:28:00,
2013-06-19 13:31:00,87.2,69.1,29.83,South,175,5.0,5.0,55,0.00,,,0.00,Wunderground v.1.15,2013-06-19 18:31:00,
2013-06-19 13:33:00,87.6,69.4,29.83,SW,236,4.0,6.0,55,0.00,,,0.00,Wunderground v.1.15,2013-06-19 18:33:00,
2013-06-19 13:35:00,87.8,69.6,29.83,SW,234,3.0,6.0,55,0.00,,,0.00,Wunderground v.1.15,2013-06-19 18:35:00,
2013-06-19 13:36:00,87.8,68.5,29.83,SW,234,3.0,6.0,53,0.00,,,0.00,Wunderground v.1.15,2013-06-19 18:36:00,
2013-06-19 13:40:00,88.4,69.6,29.83,SW,219,4.0,8.0,54,0.00,,,0.00,Wunderground v.1.15,2013-06-19 18:40:00,
2013-06-19 13:41:00,88.4,68.5,29.83,South,185,4.0,8.0,52,0.00,,,0.00,Wunderground v.1.15,2013-06-19 18:41:00,
2013-06-19 13:42:00,88.4,69.1,29.83,South,176,4.0,8.0,53,0.00,,,0.00,Wunderground v.1.15,2013-06-19 18:42:00,
2013-06-19 13:44:00,88.4,66.8,29.83,SE,137,5.0,10.0,49,0.00,,,0.00,Wunderground v.1.15,2013-06-19 18:44:00,
2013-06-19 13:47:00,88.2,67.8,29.82,SE,127,5.0,10.0,51,0.00,,,0.00,Wunderground v.1.15,2013-06-19 18:47:00,
2013-06-19 13:48:00,88.2,68.4,29.82,SE,133,5.0,10.0,52,0.00,,,0.00,Wunderground v.1.15,2013-06-19 18:48:00,
2013-06-19 13:50:00,88.2,67.8,29.82,SE,138,5.0,8.0,51,0.00,,,0.00,Wunderground v.1.15,2013-06-19 18:50:00,
2013-06-19 13:52:00,88.2,68.4,29.82,South,191,6.0,8.0,52,0.00,,,0.00,Wunderground v.1.15,2013-06-19 18:52:00,
2013-06-19 13:53:00,88.2,67.8,29.82,South,181,6.0,8.0,51,0.00,,,0.00,Wunderground v.1.15,2013-06-19 18:53:00,
2013-06-19 13:55:00,88.4,68.5,29.82,South,186,5.0,8.0,52,0.00,,,0.00,Wunderground v.1.15,2013-06-19 18:55:00,
2013-06-19 13:56:00,88.4,69.1,29.82,South,188,5.0,8.0,53,0.00,,,0.00,Wunderground v.1.15,2013-06-19 18:56:00,
2013-06-19 14:01:00,88.8,68.9,29.82,South,172,3.0,6.0,52,0.00,,,0.00,Wunderground v.1.15,2013-06-19 19:01:00,
2013-06-19 14:02:00,88.8,68.9,29.82,ESE,123,3.0,7.0,52,0.00,,,0.00,Wunderground v.1.15,2013-06-19 19:02:00,
2013-06-19 14:06:00,88.6,68.2,29.82,SSE,157,5.0,12.0,51,0.00,,,0.00,Wunderground v.1.15,2013-06-19 19:06:00,
2013-06-19 14:07:00,88.8,68.9,29.82,ESE,113,5.0,12.0,52,0.00,,,0.00,Wunderground v.1.15,2013-06-19 19:07:00,
2013-06-19 14:08:00,88.8,68.3,29.82,SE,127,5.0,12.0,51,0.00,,,0.00,Wunderground v.1.15,2013-06-19 19:08:00,
2013-06-19 14:10:00,89.0,69.1,29.82,SE,128,5.0,12.0,52,0.00,,,0.00,Wunderground v.1.15,2013-06-19 19:10:00,
2013-06-19 14:12:00,89.3,68.2,29.82,SSW,212,4.0,7.0,50,0.00,,,0.00,Wunderground v.1.15,2013-06-19 19:12:00,
2013-06-19 14:14:00,89.7,67.4,29.82,SSE,168,4.0,7.0,48,0.00,,,0.00,Wunderground v.1.15,2013-06-19 19:14:00,
2013-06-19 14:15:00,89.7,68.0,29.82,SSE,155,3.0,7.0,49,0.00,,,0.00,Wunderground v.1.15,2013-06-19 19:15:00,
2013-06-19 14:16:00,89.9,68.2,29.82,SE,143,3.0,7.0,49,0.00,,,0.00,Wunderground v.1.15,2013-06-19 19:16:00,
2013-06-19 14:18:00,89.7,67.4,29.82,SW,219,3.0,7.0,48,0.00,,,0.00,Wunderground v.1.15,2013-06-19 19:18:00,
2013-06-19 14:20:00,89.9,67.0,29.82,SSE,161,4.0,7.0,47,0.00,,,0.00,Wunderground v.1.15,2013-06-19 19:20:00,
2013-06-19 14:21:00,89.9,67.0,29.82,SSE,160,4.0,7.0,47,0.00,,,0.00,Wunderground v.1.15,2013-06-19 19:21:00,
2013-06-19 14:22:00,89.9,67.6,29.82,South,176,4.0,7.0,48,0.00,,,0.00,Wunderground v.1.15,2013-06-19 19:22:00,
2013-06-19 14:26:00,89.7,67.4,29.82,SSW,205,4.0,7.0,48,0.00,,,0.00,Wunderground v.1.15,2013-06-19 19:26:00,
2013-06-19 14:27:00,89.9,66.3,29.82,SSW,200,4.0,7.0,46,0.00,,,0.00,Wunderground v.1.15,2013-06-19 19:27:00,
2013-06-19 14:28:00,89.9,66.3,29.82,South,172,5.0,8.0,46,0.00,,,0.00,Wunderground v.1.15,2013-06-19 19:28:00,
2013-06-19 14:30:00,89.9,66.3,29.82,SE,140,5.0,5.0,46,0.00,,,0.00,Wunderground v.1.15,2013-06-19 19:30:00,
2013-06-19 14:32:00,89.9,66.3,29.82,SE,140,5.0,5.0,46,0.00,,,0.00,Wunderground v.1.15,2013-06-19 19:32:00,
2013-06-19 14:34:00,89.7,67.4,29.82,ESE,123,6.0,10.0,48,0.00,,,0.00,Wunderground v.1.15,2013-06-19 19:34:00,
2013-06-19 14:37:00,89.5,67.2,29.82,ESE,116,7.0,10.0,48,0.00,,,0.00,Wunderground v.1.15,2013-06-19 19:37:00,
2013-06-19 14:38:00,89.5,67.8,29.82,ESE,114,7.0,10.0,49,0.00,,,0.00,Wunderground v.1.15,2013-06-19 19:38:00,
2013-06-19 14:40:00,89.3,67.6,29.82,ESE,104,6.0,8.0,49,0.00,,,0.00,Wunderground v.1.15,2013-06-19 19:40:00,
2013-06-19 14:42:00,89.5,67.8,29.82,SE,130,6.0,8.0,49,0.00,,,0.00,Wunderground v.1.15,2013-06-19 19:42:00,
2013-06-19 14:43:00,89.7,68.0,29.82,SE,141,6.0,8.0,49,0.00,,,0.00,Wunderground v.1.15,2013-06-19 19:43:00,
2013-06-19 14:44:00,89.7,68.0,29.82,SE,134,5.0,8.0,49,0.00,,,0.00,Wunderground v.1.15,2013-06-19 19:44:00,
2013-06-19 14:47:00,89.9,68.2,29.81,SW,220,4.0,8.0,49,0.00,,,0.00,Wunderground v.1.15,2013-06-19 19:47:00,
2013-06-19 14:48:00,90.1,68.4,29.81,SW,227,4.0,8.0,49,0.00,,,0.00,Wunderground v.1.15,2013-06-19 19:48:00,
2013-06-19 14:52:00,90.5,68.1,29.81,SSE,161,4.0,5.0,48,0.00,,,0.00,Wunderground v.1.15,2013-06-19 19:52:00,
2013-06-19 14:53:00,90.5,68.1,29.81,South,179,4.0,5.0,48,0.00,,,0.00,Wunderground v.1.15,2013-06-19 19:53:00,
2013-06-19 14:58:00,90.5,67.5,29.81,SW,236,5.0,9.0,47,0.00,,,0.00,Wunderground v.1.15,2013-06-19 19:58:00,
2013-06-19 14:59:00,90.7,67.7,29.81,SE,141,4.0,9.0,47,0.00,,,0.00,Wunderground v.1.15,2013-06-19 19:59:00,
2013-06-19 15:01:00,91.0,67.3,29.81,South,179,4.0,4.0,46,0.00,,,0.00,Wunderground v.1.15,2013-06-19 20:01:00,
2013-06-19 15:02:00,91.0,67.3,29.81,SSW,210,4.0,7.0,46,0.00,,,0.00,Wunderground v.1.15,2013-06-19 20:02:00,
2013-06-19 15:04:00,91.4,68.3,29.81,SW,219,4.0,7.0,47,0.00,,,0.00,Wunderground v.1.15,2013-06-19 20:04:00,
2013-06-19 15:08:00,91.8,67.4,29.81,SSW,212,3.0,7.0,45,0.00,,,0.00,Wunderground v.1.15,2013-06-19 20:08:00,
2013-06-19 15:11:00,91.6,66.6,29.81,SW,234,4.0,7.0,44,0.00,,,0.00,Wunderground v.1.15,2013-06-19 20:11:00,
2013-06-19 15:13:00,91.4,67.7,29.81,SSE,165,5.0,7.0,46,0.00,,,0.00,Wunderground v.1.15,2013-06-19 20:13:00,
2013-06-19 15:16:00,91.6,67.9,29.80,SSE,167,4.0,7.0,46,0.00,,,0.00,Wunderground v.1.15,2013-06-19 20:16:00,
2013-06-19 15:17:00,91.4,67.1,29.80,South,184,5.0,7.0,45,0.00,,,0.00,Wunderground v.1.15,2013-06-19 20:17:00,
2013-06-19 15:18:00,91.6,67.3,29.80,SSE,151,5.0,8.0,45,0.00,,,0.00,Wunderground v.1.15,2013-06-19 20:18:00,
2013-06-19 15:19:00,91.4,67.1,29.80,South,175,5.0,8.0,45,0.00,,,0.00,Wunderground v.1.15,2013-06-19 20:19:00,
2013-06-19 15:24:00,91.4,67.7,29.80,ESE,103,4.0,5.0,46,0.00,,,0.00,Wunderground v.1.15,2013-06-19 20:24:00,
2013-06-19 15:25:00,91.4,67.1,29.80,SSW,198,4.0,5.0,45,0.00,,,0.00,Wunderground v.1.15,2013-06-19 20:25:00,
2013-06-19 15:26:00,91.4,67.7,29.80,SSW,209,4.0,5.0,46,0.00,,,0.00,Wunderground v.1.15,2013-06-19 20:26:00,
2013-06-19 15:31:00,91.4,67.1,29.80,South,185,3.0,3.0,45,0.00,,,0.00,Wunderground v.1.15,2013-06-19 20:31:00,
2013-06-19 15:35:00,91.2,67.5,29.80,SSE,162,3.0,5.0,46,0.00,,,0.00,Wunderground v.1.15,2013-06-19 20:35:00,
2013-06-19 15:37:00,91.2,67.5,29.80,SSE,162,2.0,5.0,46,0.00,,,0.00,Wunderground v.1.15,2013-06-19 20:37:00,
2013-06-19 15:38:00,91.0,67.3,29.80,SE,124,2.0,6.0,46,0.00,,,0.00,Wunderground v.1.15,2013-06-19 20:38:00,
2013-06-19 15:39:00,91.0,67.3,29.80,SE,143,3.0,6.0,46,0.00,,,0.00,Wunderground v.1.15,2013-06-19 20:39:00,
2013-06-19 15:41:00,91.0,68.0,29.80,SSW,192,3.0,5.0,47,0.00,,,0.00,Wunderground v.1.15,2013-06-19 20:41:00,
2013-06-19 15:45:00,91.6,67.3,29.80,SW,230,4.0,5.0,45,0.00,,,0.00,Wunderground v.1.15,2013-06-19 20:45:00,
2013-06-19 15:46:00,91.8,68.1,29.79,ESE,114,4.0,6.0,46,0.00,,,0.00,Wunderground v.1.15,2013-06-19 20:46:00,
2013-06-19 15:47:00,91.8,66.8,29.79,South,191,4.0,6.0,44,0.00,,,0.00,Wunderground v.1.15,2013-06-19 20:47:00,
2013-06-19 15:51:00,92.1,67.1,29.79,East,93,4.0,4.0,44,0.00,,,0.00,Wunderground v.1.15,2013-06-19 20:51:00,
2013-06-19 15:52:00,92.1,67.1,29.79,SE,128,4.0,5.0,44,0.00,,,0.00,Wunderground v.1.15,2013-06-19 20:52:00,
2013-06-19 15:53:00,92.1,67.1,29.79,ESE,117,4.0,5.0,44,0.00,,,0.00,Wunderground v.1.15,2013-06-19 20:53:00,
2013-06-19 15:55:00,92.1,67.7,29.79,South,176,4.0,5.0,45,0.00,,,0.00,Wunderground v.1.15,2013-06-19 20:55:00,
2013-06-19 15:57:00,92.3,67.2,29.79,South,176,4.0,5.0,44,0.00,,,0.00,Wunderground v.1.15,2013-06-19 20:57:00,
2013-06-19 15:58:00,92.5,68.1,29.79,South,176,4.0,5.0,45,0.00,,,0.00,Wunderground v.1.15,2013-06-19 20:58:00,
2013-06-19 15:59:00,92.7,67.6,29.79,SSW,205,4.0,5.0,44,0.00,,,0.00,Wunderground v.1.15,2013-06-19 20:59:00,
2013-06-19 16:01:00,92.9,66.4,29.79,SW,227,3.0,3.0,42,0.00,,,0.00,Wunderground v.1.15,2013-06-19 21:01:00,
2013-06-19 16:03:00,93.2,66.7,29.79,SE,143,2.0,10.0,42,0.00,,,0.00,Wunderground v.1.15,2013-06-19 21:03:00,
2013-06-19 16:05:00,93.2,66.7,29.79,SSW,205,2.0,10.0,42,0.00,,,0.00,Wunderground v.1.15,2013-06-19 21:05:00,
2013-06-19 16:06:00,93.2,66.7,29.79,South,184,3.0,10.0,42,0.00,,,0.00,Wunderground v.1.15,2013-06-19 21:06:00,
2013-06-19 16:11:00,92.7,65.6,29.79,SSE,155,4.0,4.0,41,0.00,,,0.00,Wunderground v.1.15,2013-06-19 21:11:00,
2013-06-19 16:12:00,92.7,66.2,29.79,South,185,4.0,5.0,42,0.00,,,0.00,Wunderground v.1.15,2013-06-19 21:12:00,
2013-06-19 16:15:00,92.5,65.4,29.79,SE,134,4.0,7.0,41,0.00,,,0.00,Wunderground v.1.15,2013-06-19 21:15:00,
2013-06-19 16:16:00,92.5,66.7,29.78,South,185,4.0,7.0,43,0.00,,,0.00,Wunderground v.1.15,2013-06-19 21:16:00,
2013-06-19 16:17:00,92.7,66.9,29.78,SE,131,4.0,7.0,43,0.00,,,0.00,Wunderground v.1.15,2013-06-19 21:17:00,
2013-06-19 16:21:00,92.5,65.4,29.78,South,184,5.0,8.0,41,0.00,,,0.00,Wunderground v.1.15,2013-06-19 21:21:00,
2013-06-19 16:22:00,92.7,65.6,29.78,South,188,5.0,8.0,41,0.00,,,0.00,Wunderground v.1.15,2013-06-19 21:22:00,
2013-06-19 16:23:00,92.7,66.9,29.78,South,184,5.0,8.0,43,0.00,,,0.00,Wunderground v.1.15,2013-06-19 21:23:00,
2013-06-19 16:24:00,92.9,65.7,29.78,South,172,5.0,8.0,41,0.00,,,0.00,Wunderground v.1.15,2013-06-19 21:24:00,
2013-06-19 16:28:00,92.5,66.1,29.78,SE,136,6.0,8.0,42,0.00,,,0.00,Wunderground v.1.15,2013-06-19 21:28:00,
2013-06-19 16:29:00,92.5,66.1,29.78,SSE,165,5.0,8.0,42,0.00,,,0.00,Wunderground v.1.15,2013-06-19 21:29:00,
2013-06-19 16:31:00,92.3,65.2,29.78,South,169,5.0,5.0,41,0.00,,,0.00,Wunderground v.1.15,2013-06-19 21:31:00,
2013-06-19 16:32:00,92.5,66.1,29.78,SE,128,5.0,5.0,42,0.00,,,0.00,Wunderground v.1.15,2013-06-19 21:32:00,
2013-06-19 16:34:00,92.5,65.4,29.78,SE,143,5.0,5.0,41,0.00,,,0.00,Wunderground v.1.15,2013-06-19 21:34:00,
2013-06-19 16:35:00,92.5,66.1,29.78,SSW,195,4.0,5.0,42,0.00,,,0.00,Wunderground v.1.15,2013-06-19 21:35:00,
2013-06-19 16:38:00,92.9,66.4,29.78,South,185,4.0,7.0,42,0.00,,,0.00,Wunderground v.1.15,2013-06-19 21:38:00,
2013-06-19 16:39:00,93.2,65.3,29.78,SW,226,4.0,7.0,40,0.00,,,0.00,Wunderground v.1.15,2013-06-19 21:39:00,
2013-06-19 16:41:00,92.9,65.7,29.78,SW,219,4.0,6.0,41,0.00,,,0.00,Wunderground v.1.15,2013-06-19 21:41:00,
2013-06-19 16:43:00,93.2,66.0,29.78,SSW,205,4.0,6.0,41,0.00,,,0.00,Wunderground v.1.15,2013-06-19 21:43:00,
2013-06-19 16:44:00,93.2,66.0,29.78,SSW,206,3.0,6.0,41,0.00,,,0.00,Wunderground v.1.15,2013-06-19 21:44:00,
2013-06-19 16:46:00,93.2,66.0,29.78,SE,144,4.0,6.0,41,0.00,,,0.00,Wunderground v.1.15,2013-06-19 21:46:00,
2013-06-19 16:47:00,93.4,66.2,29.77,SSE,164,4.0,6.0,41,0.00,,,0.00,Wunderground v.1.15,2013-06-19 21:47:00,
2013-06-19 16:49:00,93.4,66.2,29.77,SSE,148,4.0,6.0,41,0.00,,,0.00,Wunderground v.1.15,2013-06-19 21:49:00,
2013-06-19 16:51:00,93.2,66.7,29.77,SE,126,3.0,6.0,42,0.00,,,0.00,Wunderground v.1.15,2013-06-19 21:51:00,
2013-06-19 16:56:00,93.2,66.7,29.77,SE,136,4.0,8.0,42,0.00,,,0.00,Wunderground v.1.15,2013-06-19 21:56:00,
2013-06-19 16:57:00,92.9,66.4,29.77,SE,133,4.0,8.0,42,0.00,,,0.00,Wunderground v.1.15,2013-06-19 21:57:00,
2013-06-19 17:02:00,92.1,66.4,29.77,ESE,120,5.0,5.0,43,0.00,,,0.00,Wunderground v.1.15,2013-06-19 22:02:00,
2013-06-19 17:03:00,92.1,66.4,29.77,East,90,5.0,5.0,43,0.00,,,0.00,Wunderground v.1.15,2013-06-19 22:03:00,
2013-06-19 17:04:00,92.1,66.4,29.77,SE,128,5.0,7.0,43,0.00,,,0.00,Wunderground v.1.15,2013-06-19 22:04:00,
2013-06-19 17:07:00,92.5,65.4,29.77,SE,128,5.0,7.0,41,0.00,,,0.00,Wunderground v.1.15,2013-06-19 22:07:00,
2013-06-19 17:09:00,92.3,65.9,29.77,SE,130,5.0,10.0,42,0.00,,,0.00,Wunderground v.1.15,2013-06-19 22:09:00,
2013-06-19 17:13:00,92.3,66.6,29.77,SE,136,5.0,5.0,43,0.00,,,0.00,Wunderground v.1.15,2013-06-19 22:13:00,
2013-06-19 17:14:00,92.3,65.9,29.77,SE,136,5.0,5.0,42,0.00,,,0.00,Wunderground v.1.15,2013-06-19 22:14:00,
2013-06-19 17:15:00,92.5,66.7,29.77,SE,144,4.0,5.0,43,0.00,,,0.00,Wunderground v.1.15,2013-06-19 22:15:00,
2013-06-19 17:17:00,92.5,66.1,29.77,South,169,4.0,5.0,42,0.00,,,0.00,Wunderground v.1.15,2013-06-19 22:17:00,
2013-06-19 17:21:00,92.3,65.9,29.77,SE,127,3.0,7.0,42,0.00,,,0.00,Wunderground v.1.15,2013-06-19 22:21:00,
2013-06-19 17:22:00,92.3,65.9,29.77,SE,124,3.0,7.0,42,0.00,,,0.00,Wunderground v.1.15,2013-06-19 22:22:00,
2013-06-19 17:23:00,92.3,65.2,29.77,SSE,147,3.0,7.0,41,0.00,,,0.00,Wunderground v.1.15,2013-06-19 22:23:00,
2013-06-19 17:27:00,92.5,65.4,29.77,SSE,150,4.0,7.0,41,0.00,,,0.00,Wunderground v.1.15,2013-06-19 22:27:00,
2013-06-19 17:28:00,92.5,64.7,29.77,SSE,151,4.0,7.0,40,0.00,,,0.00,Wunderground v.1.15,2013-06-19 22:28:00,
2013-06-19 17:29:00,92.7,64.8,29.77,ESE,107,3.0,7.0,40,0.00,,,0.00,Wunderground v.1.15,2013-06-19 22:29:00,
2013-06-19 17:33:00,92.5,63.9,29.77,SE,133,4.0,10.0,39,0.00,,,0.00,Wunderground v.1.15,2013-06-19 22:33:00,
2013-06-19 17:34:00,92.5,64.7,29.77,East,100,4.0,10.0,40,0.00,,,0.00,Wunderground v.1.15,2013-06-19 22:34:00,
2013-06-19 17:35:00,92.5,63.9,29.77,SE,130,4.0,10.0,39,0.00,,,0.00,Wunderground v.1.15,2013-06-19 22:35:00,
2013-06-19 17:38:00,92.5,64.7,29.77,South,176,5.0,10.0,40,0.00,,,0.00,Wunderground v.1.15,2013-06-19 22:38:00,
2013-06-19 17:41:00,92.3,63.8,29.77,ESE,103,6.0,10.0,39,0.00,,,0.00,Wunderground v.1.15,2013-06-19 22:41:00,
2013-06-19 17:42:00,92.3,63.8,29.77,SE,127,6.0,7.0,39,0.00,,,0.00,Wunderground v.1.15,2013-06-19 22:42:00,
2013-06-19 17:45:00,92.3,63.0,29.77,ESE,116,5.0,7.0,38,0.00,,,0.00,Wunderground v.1.15,2013-06-19 22:45:00,
2013-06-19 17:48:00,92.5,63.9,29.78,ESE,119,4.0,7.0,39,0.00,,,0.00,Wunderground v.1.15,2013-06-19 22:48:00,
2013-06-19 17:49:00,92.5,63.9,29.78,SE,133,4.0,7.0,39,0.00,,,0.00,Wunderground v.1.15,2013-06-19 22:49:00,
2013-06-19 17:51:00,92.7,64.8,29.78,SSE,162,3.0,6.0,40,0.00,,,0.00,Wunderground v.1.15,2013-06-19 22:51:00,
2013-06-19 17:52:00,92.7,65.6,29.78,South,179,2.0,6.0,41,0.00,,,0.00,Wunderground v.1.15,2013-06-19 22:52:00,
2013-06-19 17:53:00,92.9,65.7,29.78,South,184,2.0,6.0,41,0.00,,,0.00,Wunderground v.1.15,2013-06-19 22:53:00,
2013-06-19 17:56:00,92.9,65.0,29.78,ENE,71,2.0,6.0,40,0.00,,,0.00,Wunderground v.1.15,2013-06-19 22:56:00,
2013-06-19 17:57:00,92.9,65.0,29.78,SSE,155,2.0,6.0,40,0.00,,,0.00,Wunderground v.1.15,2013-06-19 22:57:00,
2013-06-19 17:59:00,92.9,63.6,29.78,SE,134,2.0,8.0,38,0.00,,,0.00,Wunderground v.1.15,2013-06-19 22:59:00,
2013-06-19 18:01:00,92.9,62.8,29.78,South,179,3.0,3.0,37,0.00,,,0.00,Wunderground v.1.15,2013-06-19 23:01:00,
2013-06-19 18:03:00,92.7,63.4,29.77,SSE,158,3.0,3.0,38,0.00,,,0.00,Wunderground v.1.15,2013-06-19 23:03:00,
2013-06-19 18:06:00,92.7,61.0,29.77,SE,141,3.0,6.0,35,0.00,,,0.00,Wunderground v.1.15,2013-06-19 23:06:00,
2013-06-19 18:08:00,92.9,60.4,29.77,SSE,151,3.0,6.0,34,0.00,,,0.00,Wunderground v.1.15,2013-06-19 23:08:00,
2013-06-19 18:09:00,92.9,59.6,29.77,South,176,3.0,6.0,33,0.00,,,0.00,Wunderground v.1.15,2013-06-19 23:09:00,
2013-06-19 18:14:00,93.2,59.8,29.77,SE,131,3.0,7.0,33,0.00,,,0.00,Wunderground v.1.15,2013-06-19 23:14:00,
2013-06-19 18:15:00,92.9,59.6,29.77,SE,127,4.0,7.0,33,0.00,,,0.00,Wunderground v.1.15,2013-06-19 23:15:00,
2013-06-19 18:20:00,92.9,58.7,29.78,ESE,120,5.0,7.0,32,0.00,,,0.00,Wunderground v.1.15,2013-06-19 23:20:00,
2013-06-19 18:23:00,92.9,58.7,29.78,ESE,121,6.0,8.0,32,0.00,,,0.00,Wunderground v.1.15,2013-06-19 23:23:00,
2013-06-19 18:24:00,92.9,58.7,29.78,SE,130,6.0,8.0,32,0.00,,,0.00,Wunderground v.1.15,2013-06-19 23:24:00,
2013-06-19 18:26:00,92.7,57.6,29.78,ESE,117,5.0,8.0,31,0.00,,,0.00,Wunderground v.1.15,2013-06-19 23:26:00,
2013-06-19 18:27:00,92.7,58.5,29.78,SE,138,5.0,8.0,32,0.00,,,0.00,Wunderground v.1.15,2013-06-19 23:27:00,
2013-06-19 18:30:00,92.9,59.6,29.78,SE,137,4.0,8.0,33,0.00,,,0.00,Wunderground v.1.15,2013-06-19 23:30:00,
2013-06-19 18:31:00,92.9,59.6,29.78,South,176,4.0,6.0,33,0.00,,,0.00,Wunderground v.1.15,2013-06-19 23:31:00,
2013-06-19 18:32:00,92.9,59.6,29.77,South,179,4.0,6.0,33,0.00,,,0.00,Wunderground v.1.15,2013-06-19 23:32:00,
2013-06-19 18:33:00,92.9,60.4,29.77,SSW,199,4.0,6.0,34,0.00,,,0.00,Wunderground v.1.15,2013-06-19 23:33:00,
2013-06-19 18:37:00,92.9,61.2,29.77,SSE,152,3.0,6.0,35,0.00,,,0.00,Wunderground v.1.15,2013-06-19 23:37:00,
2013-06-19 18:38:00,92.9,61.2,29.77,SSE,168,3.0,7.0,35,0.00,,,0.00,Wunderground v.1.15,2013-06-19 23:38:00,
2013-06-19 18:39:00,92.9,61.2,29.77,South,181,3.0,7.0,35,0.00,,,0.00,Wunderground v.1.15,2013-06-19 23:39:00,
2013-06-19 18:44:00,92.9,61.2,29.77,East,92,2.0,6.0,35,0.00,,,0.00,Wunderground v.1.15,2013-06-19 23:44:00,
2013-06-19 18:45:00,92.7,61.0,29.77,ESE,106,3.0,6.0,35,0.00,,,0.00,Wunderground v.1.15,2013-06-19 23:45:00,
2013-06-19 18:47:00,92.7,61.8,29.77,East,97,3.0,6.0,36,0.00,,,0.00,Wunderground v.1.15,2013-06-19 23:47:00,
2013-06-19 18:49:00,92.7,61.8,29.77,ESE,112,3.0,6.0,36,0.00,,,0.00,Wunderground v.1.15,2013-06-19 23:49:00,
2013-06-19 18:52:00,92.5,62.4,29.77,SSE,161,3.0,7.0,37,0.00,,,0.00,Wunderground v.1.15,2013-06-19 23:52:00,
2013-06-19 18:53:00,92.5,62.4,29.77,SSE,157,3.0,7.0,37,0.00,,,0.00,Wunderground v.1.15,2013-06-19 23:53:00,
2013-06-19 18:54:00,92.5,61.7,29.77,SSE,158,3.0,7.0,36,0.00,,,0.00,Wunderground v.1.15,2013-06-19 23:54:00,
2013-06-19 18:55:00,92.5,61.7,29.77,SSE,158,3.0,7.0,36,0.00,,,0.00,Wunderground v.1.15,2013-06-19 23:55:00,
2013-06-19 18:59:00,92.5,62.4,29.77,SSE,151,3.0,7.0,37,0.00,,,0.00,Wunderground v.1.15,2013-06-19 23:59:00,
2013-06-19 19:00:00,92.5,63.2,29.77,South,191,3.0,3.0,38,0.00,,,0.00,Wunderground v.1.15,2013-06-20 00:00:00,
2013-06-19 19:01:00,92.5,63.2,29.77,South,191,3.0,3.0,38,0.00,,,0.00,Wunderground v.1.15,2013-06-20 00:01:00,
2013-06-19 19:03:00,92.5,63.2,29.78,South,191,3.0,3.0,38,0.00,,,0.00,Wunderground v.1.15,2013-06-20 00:03:00,
2013-06-19 19:04:00,92.5,63.9,29.78,South,175,3.0,3.0,39,0.00,,,0.00,Wunderground v.1.15,2013-06-20 00:04:00,
2013-06-19 19:05:00,92.5,63.9,29.78,SE,136,2.0,4.0,39,0.00,,,0.00,Wunderground v.1.15,2013-06-20 00:05:00,
2013-06-19 19:07:00,92.5,63.2,29.78,SSE,152,3.0,6.0,38,0.00,,,0.00,Wunderground v.1.15,2013-06-20 00:07:00,
2013-06-19 19:09:00,92.5,63.9,29.78,SE,141,3.0,6.0,39,0.00,,,0.00,Wunderground v.1.15,2013-06-20 00:09:00,
2013-06-19 19:10:00,92.3,63.8,29.78,SE,130,3.0,3.0,39,0.00,,,0.00,Wunderground v.1.15,2013-06-20 00:10:00,
2013-06-19 19:14:00,92.3,64.5,29.78,SSE,167,3.0,3.0,40,0.00,,,0.00,Wunderground v.1.15,2013-06-20 00:14:00,
2013-06-19 19:15:00,92.3,64.5,29.78,SE,131,3.0,5.0,40,0.00,,,0.00,Wunderground v.1.15,2013-06-20 00:15:00,
2013-06-19 19:16:00,92.3,64.5,29.78,SE,131,3.0,5.0,40,0.00,,,0.00,Wunderground v.1.15,2013-06-20 00:16:00,
2013-06-19 19:17:00,92.3,64.5,29.79,SE,131,3.0,5.0,40,0.00,,,0.00,Wunderground v.1.15,2013-06-20 00:17:00,
2013-06-19 19:22:00,92.1,65.7,29.79,ESE,117,3.0,6.0,42,0.00,,,0.00,Wunderground v.1.15,2013-06-20 00:22:00,
2013-06-19 19:23:00,92.1,65.7,29.79,SE,124,3.0,6.0,42,0.00,,,0.00,Wunderground v.1.15,2013-06-20 00:23:00,
2013-06-19 19:24:00,92.1,66.4,29.79,ESE,119,3.0,8.0,43,0.00,,,0.00,Wunderground v.1.15,2013-06-20 00:24:00,
2013-06-19 19:25:00,92.1,65.7,29.79,SE,130,3.0,11.0,42,0.00,,,0.00,Wunderground v.1.15,2013-06-20 00:25:00,
2013-06-19 19:27:00,91.8,66.1,29.79,SE,127,4.0,12.0,43,0.00,,,0.00,Wunderground v.1.15,2013-06-20 00:27:00,
2013-06-19 19:29:00,91.6,65.9,29.79,SE,140,5.0,12.0,43,0.00,,,0.00,Wunderground v.1.15,2013-06-20 00:29:00,
2013-06-19 19:30:00,91.6,65.9,29.79,SE,145,5.0,7.0,43,0.00,,,0.00,Wunderground v.1.15,2013-06-20 00:30:00,
2013-06-19 19:32:00,91.4,65.8,29.78,SSE,161,5.0,7.0,43,0.00,,,0.00,Wunderground v.1.15,2013-06-20 00:32:00,
2013-06-19 19:35:00,91.4,65.8,29.78,ESE,123,5.0,7.0,43,0.00,,,0.00,Wunderground v.1.15,2013-06-20 00:35:00,
2013-06-19 19:40:00,91.2,65.6,29.78,SE,124,4.0,4.0,43,0.00,,,0.00,Wunderground v.1.15,2013-06-20 00:40:00,
2013-06-19 19:41:00,91.2,65.6,29.78,SE,124,4.0,4.0,43,0.00,,,0.00,Wunderground v.1.15,2013-06-20 00:41:00,
2013-06-19 19:43:00,91.2,66.2,29.78,ESE,119,4.0,4.0,44,0.00,,,0.00,Wunderground v.1.15,2013-06-20 00:43:00,
2013-06-19 19:44:00,91.2,65.6,29.78,ESE,117,4.0,5.0,43,0.00,,,0.00,Wunderground v.1.15,2013-06-20 00:44:00,
2013-06-19 19:46:00,91.0,66.1,29.78,SE,140,3.0,6.0,44,0.00,,,0.00,Wunderground v.1.15,2013-06-20 00:46:00,
2013-06-19 19:48:00,91.0,66.1,29.78,SE,140,3.0,6.0,44,0.00,,,0.00,Wunderground v.1.15,2013-06-20 00:48:00,
2013-06-19 19:49:00,91.0,66.1,29.78,SE,144,3.0,6.0,44,0.00,,,0.00,Wunderground v.1.15,2013-06-20 00:49:00,
2013-06-19 19:51:00,91.0,66.1,29.78,SE,140,3.0,5.0,44,0.00,,,0.00,Wunderground v.1.15,2013-06-20 00:51:00,
2013-06-19 19:54:00,90.7,66.4,29.78,SE,140,3.0,5.0,45,0.00,,,0.00,Wunderground v.1.15,2013-06-20 00:54:00,
2013-06-19 19:56:00,90.7,66.4,29.78,SE,140,2.0,5.0,45,0.00,,,0.00,Wunderground v.1.15,2013-06-20 00:56:00,
2013-06-19 19:57:00,90.7,66.4,29.78,SE,140,2.0,5.0,45,0.00,,,0.00,Wunderground v.1.15,2013-06-20 00:57:00,
2013-06-19 19:59:00,90.7,66.4,29.78,SE,140,1.0,5.0,45,0.00,,,0.00,Wunderground v.1.15,2013-06-20 00:59:00,
2013-06-19 20:01:00,90.7,66.4,29.78,SE,140,1.0,1.0,45,0.00,,,0.00,Wunderground v.1.15,2013-06-20 01:01:00,
2013-06-19 20:03:00,90.5,66.3,29.79,SE,140,1.0,3.0,45,0.00,,,0.00,Wunderground v.1.15,2013-06-20 01:03:00,
2013-06-19 20:04:00,90.5,66.3,29.79,SE,144,1.0,3.0,45,0.00,,,0.00,Wunderground v.1.15,2013-06-20 01:04:00,
2013-06-19 20:06:00,90.5,66.3,29.79,SE,144,1.0,3.0,45,0.00,,,0.00,Wunderground v.1.15,2013-06-20 01:06:00,
2013-06-19 20:07:00,90.5,66.3,29.79,SE,143,1.0,3.0,45,0.00,,,0.00,Wunderground v.1.15,2013-06-20 01:07:00,
2013-06-19 20:09:00,90.3,66.1,29.79,SE,141,1.0,3.0,45,0.00,,,0.00,Wunderground v.1.15,2013-06-20 01:09:00,
2013-06-19 20:12:00,90.3,66.1,29.79,SE,141,1.0,2.0,45,0.00,,,0.00,Wunderground v.1.15,2013-06-20 01:12:00,
2013-06-19 20:13:00,90.1,65.9,29.79,SE,141,1.0,2.0,45,0.00,,,0.00,Wunderground v.1.15,2013-06-20 01:13:00,
2013-06-19 20:14:00,90.1,65.9,29.79,SE,141,1.0,2.0,45,0.00,,,0.00,Wunderground v.1.15,2013-06-20 01:14:00,
2013-06-19 20:15:00,90.1,66.5,29.79,SE,141,1.0,2.0,46,0.00,,,0.00,Wunderground v.1.15,2013-06-20 01:15:00,
2013-06-19 20:18:00,89.9,65.7,29.79,ESE,102,1.0,2.0,45,0.00,,,0.00,Wunderground v.1.15,2013-06-20 01:18:00,
2013-06-19 20:21:00,89.9,65.7,29.79,ESE,103,1.0,3.0,45,0.00,,,0.00,Wunderground v.1.15,2013-06-20 01:21:00,
2013-06-19 20:23:00,89.7,66.2,29.79,ESE,103,1.0,3.0,46,0.00,,,0.00,Wunderground v.1.15,2013-06-20 01:23:00,
2013-06-19 20:24:00,89.7,65.5,29.79,ESE,103,1.0,3.0,45,0.00,,,0.00,Wunderground v.1.15,2013-06-20 01:24:00,
2013-06-19 20:25:00,89.7,66.2,29.79,ESE,103,1.0,3.0,46,0.00,,,0.00,Wunderground v.1.15,2013-06-20 01:25:00,
2013-06-19 20:26:00,89.5,66.0,29.79,ESE,103,1.0,3.0,46,0.00,,,0.00,Wunderground v.1.15,2013-06-20 01:26:00,
2013-06-19 20:27:00,89.5,66.0,29.79,ESE,103,1.0,3.0,46,0.00,,,0.00,Wunderground v.1.15,2013-06-20 01:27:00,
2013-06-19 20:29:00,89.5,66.0,29.79,ESE,103,1.0,3.0,46,0.00,,,0.00,Wunderground v.1.15,2013-06-20 01:29:00,
2013-06-19 20:31:00,89.3,65.8,29.79,ESE,110,1.0,3.0,46,0.00,,,0.00,Wunderground v.1.15,2013-06-20 01:31:00,
2013-06-19 20:32:00,89.3,65.8,29.79,ESE,110,1.0,3.0,46,0.00,,,0.00,Wunderground v.1.15,2013-06-20 01:32:00,
2013-06-19 20:34:00,89.0,65.5,29.79,ESE,110,0.0,3.0,46,0.00,,,0.00,Wunderground v.1.15,2013-06-20 01:34:00,
2013-06-19 20:37:00,89.0,66.2,29.79,ESE,110,0.0,3.0,47,0.00,,,0.00,Wunderground v.1.15,2013-06-20 01:37:00,
2013-06-19 20:38:00,89.0,66.2,29.79,ESE,110,0.0,3.0,47,0.00,,,0.00,Wunderground v.1.15,2013-06-20 01:38:00,
2013-06-19 20:41:00,88.8,66.0,29.79,ESE,110,0.0,0.0,47,0.00,,,0.00,Wunderground v.1.15,2013-06-20 01:41:00,
2013-06-19 20:43:00,88.8,66.0,29.79,ESE,110,0.0,0.0,47,0.00,,,0.00,Wunderground v.1.15,2013-06-20 01:43:00,
2013-06-19 20:46:00,88.6,65.8,29.79,ESE,110,0.0,1.0,47,0.00,,,0.00,Wunderground v.1.15,2013-06-20 01:46:00,
2013-06-19 20:48:00,88.6,65.8,29.79,ESE,110,0.0,1.0,47,0.00,,,0.00,Wunderground v.1.15,2013-06-20 01:48:00,
2013-06-19 20:51:00,88.4,66.2,29.79,ESE,110,0.0,0.0,48,0.00,,,0.00,Wunderground v.1.15,2013-06-20 01:51:00,
2013-06-19 20:53:00,88.4,66.2,29.79,SE,144,0.0,8.0,48,0.00,,,0.00,Wunderground v.1.15,2013-06-20 01:53:00,
2013-06-19 20:55:00,88.2,66.0,29.79,SSE,152,1.0,8.0,48,0.00,,,0.00,Wunderground v.1.15,2013-06-20 01:55:00,
2013-06-19 20:56:00,88.2,66.0,29.79,SSE,150,1.0,8.0,48,0.00,,,0.00,Wunderground v.1.15,2013-06-20 01:56:00,
2013-06-19 20:57:00,88.2,66.6,29.79,SE,134,1.0,13.0,49,0.00,,,0.00,Wunderground v.1.15,2013-06-20 01:57:00,
2013-06-19 20:58:00,88.0,67.0,29.79,SSE,154,2.0,13.0,50,0.00,,,0.00,Wunderground v.1.15,2013-06-20 01:58:00,
2013-06-19 21:00:00,87.8,67.4,29.79,SE,124,4.0,11.0,51,0.00,,,0.00,Wunderground v.1.15,2013-06-20 02:00:00,
2013-06-19 21:03:00,87.6,68.4,29.80,ESE,121,6.0,11.0,53,0.00,,,0.00,Wunderground v.1.15,2013-06-20 02:03:00,
2013-06-19 21:04:00,87.6,68.4,29.80,SE,144,7.0,11.0,53,0.00,,,0.00,Wunderground v.1.15,2013-06-20 02:04:00,
2013-06-19 21:05:00,87.4,68.2,29.80,SSE,148,7.0,11.0,53,0.00,,,0.00,Wunderground v.1.15,2013-06-20 02:05:00,
2013-06-19 21:07:00,87.4,68.7,29.80,SE,136,8.0,11.0,54,0.00,,,0.00,Wunderground v.1.15,2013-06-20 02:07:00,
2013-06-19 21:09:00,87.2,68.5,29.80,SE,127,8.0,11.0,54,0.00,,,0.00,Wunderground v.1.15,2013-06-20 02:09:00,
2013-06-19 21:10:00,87.2,69.1,29.80,SSE,165,8.0,8.0,55,0.00,,,0.00,Wunderground v.1.15,2013-06-20 02:10:00,
2013-06-19 21:12:00,87.0,68.9,29.80,SE,128,8.0,11.0,55,0.00,,,0.00,Wunderground v.1.15,2013-06-20 02:12:00,
2013-06-19 21:14:00,87.0,68.9,29.80,SE,140,7.0,11.0,55,0.00,,,0.00,Wunderground v.1.15,2013-06-20 02:14:00,
2013-06-19 21:15:00,87.0,68.9,29.80,ESE,123,7.0,11.0,55,0.00,,,0.00,Wunderground v.1.15,2013-06-20 02:15:00,
2013-06-19 21:17:00,86.7,69.1,29.81,SE,131,7.0,11.0,56,0.00,,,0.00,Wunderground v.1.15,2013-06-20 02:17:00,
2013-06-19 21:19:00,86.5,68.9,29.81,SE,138,7.0,11.0,56,0.00,,,0.00,Wunderground v.1.15,2013-06-20 02:19:00,
2013-06-19 21:21:00,86.5,68.9,29.81,SSE,165,8.0,8.0,56,0.00,,,0.00,Wunderground v.1.15,2013-06-20 02:21:00,
2013-06-19 21:23:00,86.3,69.3,29.81,SSE,150,7.0,8.0,57,0.00,,,0.00,Wunderground v.1.15,2013-06-20 02:23:00,
2013-06-19 21:25:00,86.1,69.1,29.81,SE,136,8.0,8.0,57,0.00,,,0.00,Wunderground v.1.15,2013-06-20 02:25:00,
2013-06-19 21:26:00,86.1,69.1,29.81,SSE,162,8.0,8.0,57,0.00,,,0.00,Wunderground v.1.15,2013-06-20 02:26:00,
2013-06-19 21:27:00,86.1,69.1,29.81,SSE,158,8.0,8.0,57,0.00,,,0.00,Wunderground v.1.15,2013-06-20 02:27:00,
2013-06-19 21:31:00,85.9,69.4,29.81,South,174,8.0,8.0,58,0.00,,,0.00,Wunderground v.1.15,2013-06-20 02:31:00,
2013-06-19 21:32:00,85.9,69.4,29.82,SE,128,8.0,10.0,58,0.00,,,0.00,Wunderground v.1.15,2013-06-20 02:32:00,
2013-06-19 21:35:00,85.5,69.0,29.82,SSE,155,7.0,13.0,58,0.00,,,0.00,Wunderground v.1.15,2013-06-20 02:35:00,
2013-06-19 21:36:00,85.5,69.0,29.82,SSE,167,7.0,13.0,58,0.00,,,0.00,Wunderground v.1.15,2013-06-20 02:36:00,
2013-06-19 21:38:00,85.5,69.0,29.82,ESE,110,7.0,13.0,58,0.00,,,0.00,Wunderground v.1.15,2013-06-20 02:38:00,
2013-06-19 21:43:00,85.3,68.8,29.82,SE,133,7.0,11.0,58,0.00,,,0.00,Wunderground v.1.15,2013-06-20 02:43:00,
2013-06-19 21:44:00,85.1,69.2,29.82,SE,133,7.0,11.0,59,0.00,,,0.00,Wunderground v.1.15,2013-06-20 02:44:00,
2013-06-19 21:45:00,85.1,69.2,29.82,SE,138,7.0,11.0,59,0.00,,,0.00,Wunderground v.1.15,2013-06-20 02:45:00,
2013-06-19 21:46:00,85.1,69.2,29.82,SSE,165,7.0,11.0,59,0.00,,,0.00,Wunderground v.1.15,2013-06-20 02:46:00,
2013-06-19 21:47:00,85.1,69.2,29.83,SE,133,7.0,11.0,59,0.00,,,0.00,Wunderground v.1.15,2013-06-20 02:47:00,
2013-06-19 21:52:00,84.7,68.8,29.83,SSE,167,6.0,8.0,59,0.00,,,0.00,Wunderground v.1.15,2013-06-20 02:52:00,
2013-06-19 21:53:00,84.7,69.3,29.83,South,169,7.0,8.0,60,0.00,,,0.00,Wunderground v.1.15,2013-06-20 02:53:00,
2013-06-19 21:54:00,84.7,69.3,29.83,SSE,148,6.0,8.0,60,0.00,,,0.00,Wunderground v.1.15,2013-06-20 02:54:00,
2013-06-19 21:55:00,84.7,69.3,29.83,SE,136,6.0,11.0,60,0.00,,,0.00,Wunderground v.1.15,2013-06-20 02:55:00,
2013-06-19 21:59:00,84.5,69.1,29.83,SE,140,7.0,12.0,60,0.00,,,0.00,Wunderground v.1.15,2013-06-20 02:59:00,
2013-06-19 22:01:00,84.3,68.9,29.83,SE,141,7.0,7.0,60,0.00,,,0.00,Wunderground v.1.15,2013-06-20 03:01:00,
2013-06-19 22:04:00,84.1,68.7,29.84,SSE,147,7.0,8.0,60,0.00,,,0.00,Wunderground v.1.15,2013-06-20 03:04:00,
2013-06-19 22:05:00,84.1,68.7,29.84,SE,138,7.0,8.0,60,0.00,,,0.00,Wunderground v.1.15,2013-06-20 03:05:00,
2013-06-19 22:07:00,84.1,68.7,29.84,SSE,158,7.0,10.0,60,0.00,,,0.00,Wunderground v.1.15,2013-06-20 03:07:00,
2013-06-19 22:11:00,84.0,69.1,29.84,ESE,103,7.0,7.0,61,0.00,,,0.00,Wunderground v.1.15,2013-06-20 03:11:00,
2013-06-19 22:12:00,84.0,69.1,29.84,SE,133,6.0,7.0,61,0.00,,,0.00,Wunderground v.1.15,2013-06-20 03:12:00,
2013-06-19 22:13:00,83.8,68.9,29.84,SSE,147,6.0,7.0,61,0.00,,,0.00,Wunderground v.1.15,2013-06-20 03:13:00,
2013-06-19 22:14:00,83.8,68.9,29.84,SE,144,7.0,7.0,61,0.00,,,0.00,Wunderground v.1.15,2013-06-20 03:14:00,
2013-06-19 22:16:00,83.8,68.9,29.84,SE,131,5.0,7.0,61,0.00,,,0.00,Wunderground v.1.15,2013-06-20 03:16:00,
2013-06-19 22:19:00,83.6,69.2,29.84,South,176,5.0,8.0,62,0.00,,,0.00,Wunderground v.1.15,2013-06-20 03:19:00,
2013-06-19 22:21:00,83.6,69.2,29.84,South,174,5.0,12.0,62,0.00,,,0.00,Wunderground v.1.15,2013-06-20 03:21:00,
2013-06-19 22:22:00,83.4,69.0,29.84,SSE,165,5.0,12.0,62,0.00,,,0.00,Wunderground v.1.15,2013-06-20 03:22:00,
2013-06-19 22:23:00,83.4,69.0,29.84,SE,137,5.0,12.0,62,0.00,,,0.00,Wunderground v.1.15,2013-06-20 03:23:00,
2013-06-19 22:25:00,83.4,69.0,29.84,SE,140,5.0,12.0,62,0.00,,,0.00,Wunderground v.1.15,2013-06-20 03:25:00,
2013-06-19 22:27:00,83.2,69.3,29.84,SE,133,5.0,12.0,63,0.00,,,0.00,Wunderground v.1.15,2013-06-20 03:27:00,
2013-06-19 22:28:00,83.2,69.3,29.84,South,171,5.0,12.0,63,0.00,,,0.00,Wunderground v.1.15,2013-06-20 03:28:00,
2013-06-19 22:29:00,83.2,69.3,29.84,SE,130,5.0,12.0,63,0.00,,,0.00,Wunderground v.1.15,2013-06-20 03:29:00,
2013-06-19 22:31:00,83.0,69.1,29.84,SE,140,5.0,5.0,63,0.00,,,0.00,Wunderground v.1.15,2013-06-20 03:31:00,
2013-06-19 22:33:00,83.0,69.6,29.86,SSE,167,4.0,5.0,64,0.00,,,0.00,Wunderground v.1.15,2013-06-20 03:33:00,
2013-06-19 22:36:00,82.8,69.8,29.86,SSE,157,5.0,6.0,65,0.00,,,0.00,Wunderground v.1.15,2013-06-20 03:36:00,
2013-06-19 22:38:00,82.6,69.6,29.86,SE,138,5.0,8.0,65,0.00,,,0.00,Wunderground v.1.15,2013-06-20 03:38:00,
2013-06-19 22:41:00,82.4,69.4,29.86,South,174,5.0,8.0,65,0.00,,,0.00,Wunderground v.1.15,2013-06-20 03:41:00,
2013-06-19 22:42:00,82.4,69.9,29.86,SSE,168,6.0,6.0,66,0.00,,,0.00,Wunderground v.1.15,2013-06-20 03:42:00,
2013-06-19 22:46:00,82.2,70.1,29.86,SSE,168,5.0,6.0,67,0.00,,,0.00,Wunderground v.1.15,2013-06-20 03:46:00,
2013-06-19 22:47:00,82.2,70.1,29.86,SSE,165,5.0,6.0,67,0.00,,,0.00,Wunderground v.1.15,2013-06-20 03:47:00,
2013-06-19 22:48:00,82.2,70.1,29.86,SSE,165,5.0,6.0,67,0.00,,,0.00,Wunderground v.1.15,2013-06-20 03:48:00,
2013-06-19 22:51:00,82.0,70.0,29.86,SSE,152,4.0,6.0,67,0.00,,,0.00,Wunderground v.1.15,2013-06-20 03:51:00,
2013-06-19 22:52:00,81.8,69.8,29.86,SSE,152,4.0,4.0,67,0.00,,,0.00,Wunderground v.1.15,2013-06-20 03:52:00,
2013-06-19 22:54:00,81.8,69.8,29.86,SSE,167,3.0,6.0,67,0.00,,,0.00,Wunderground v.1.15,2013-06-20 03:54:00,
2013-06-19 22:58:00,81.8,70.6,29.86,SSE,151,4.0,11.0,69,0.00,,,0.00,Wunderground v.1.15,2013-06-20 03:58:00,
2013-06-19 22:59:00,81.6,70.4,29.86,South,181,4.0,11.0,69,0.00,,,0.00,Wunderground v.1.15,2013-06-20 03:59:00,
2013-06-19 23:01:00,81.6,70.4,29.86,SSW,199,4.0,4.0,69,0.00,,,0.00,Wunderground v.1.15,2013-06-20 04:01:00,
2013-06-19 23:05:00,81.4,70.2,29.86,SSE,155,5.0,11.0,69,0.00,,,0.00,Wunderground v.1.15,2013-06-20 04:05:00,
2013-06-19 23:06:00,81.4,70.2,29.86,South,186,5.0,11.0,69,0.00,,,0.00,Wunderground v.1.15,2013-06-20 04:06:00,
2013-06-19 23:07:00,81.2,70.5,29.86,South,186,5.0,12.0,70,0.00,,,0.00,Wunderground v.1.15,2013-06-20 04:07:00,
2013-06-19 23:11:00,81.1,70.4,29.86,South,184,6.0,12.0,70,0.00,,,0.00,Wunderground v.1.15,2013-06-20 04:11:00,
2013-06-19 23:14:00,80.9,70.6,29.86,SSE,167,6.0,7.0,71,0.00,,,0.00,Wunderground v.1.15,2013-06-20 04:14:00,
2013-06-19 23:16:00,80.9,70.6,29.86,SSW,202,6.0,7.0,71,0.00,,,0.00,Wunderground v.1.15,2013-06-20 04:16:00,
2013-06-19 23:18:00,80.9,70.6,29.85,SSE,160,6.0,7.0,71,0.00,,,0.00,Wunderground v.1.15,2013-06-20 04:18:00,
2013-06-19 23:19:00,80.7,70.4,29.85,SSW,206,5.0,7.0,71,0.00,,,0.00,Wunderground v.1.15,2013-06-20 04:19:00,
2013-06-19 23:22:00,80.7,70.4,29.85,SSE,168,5.0,9.0,71,0.00,,,0.00,Wunderground v.1.15,2013-06-20 04:22:00,
2013-06-19 23:23:00,80.7,70.4,29.85,SSE,164,5.0,9.0,71,0.00,,,0.00,Wunderground v.1.15,2013-06-20 04:23:00,
2013-06-19 23:25:00,80.7,70.8,29.85,SSW,192,5.0,9.0,72,0.00,,,0.00,Wunderground v.1.15,2013-06-20 04:25:00,
2013-06-19 23:28:00,80.5,70.6,29.85,SSE,165,4.0,9.0,72,0.00,,,0.00,Wunderground v.1.15,2013-06-20 04:28:00,
2013-06-19 23:31:00,80.3,70.4,29.85,SE,137,3.0,5.0,72,0.00,,,0.00,Wunderground v.1.15,2013-06-20 04:31:00,
2013-06-19 23:32:00,80.3,70.4,29.86,SE,137,3.0,5.0,72,0.00,,,0.00,Wunderground v.1.15,2013-06-20 04:32:00,
2013-06-19 23:33:00,80.3,70.4,29.86,South,188,3.0,7.0,72,0.00,,,0.00,Wunderground v.1.15,2013-06-20 04:33:00,
2013-06-19 23:34:00,80.3,70.4,29.86,South,182,3.0,7.0,72,0.00,,,0.00,Wunderground v.1.15,2013-06-20 04:34:00,
2013-06-19 23:36:00,80.3,70.4,29.86,SSE,167,2.0,7.0,72,0.00,,,0.00,Wunderground v.1.15,2013-06-20 04:36:00,
2013-06-19 23:38:00,80.1,70.3,29.86,SSE,167,2.0,7.0,72,0.00,,,0.00,Wunderground v.1.15,2013-06-20 04:38:00,
2013-06-19 23:41:00,80.1,70.7,29.86,South,182,2.0,7.0,73,0.00,,,0.00,Wunderground v.1.15,2013-06-20 04:41:00,
2013-06-19 23:42:00,79.9,70.5,29.86,SSE,152,2.0,3.0,73,0.00,,,0.00,Wunderground v.1.15,2013-06-20 04:42:00,
2013-06-19 23:46:00,79.9,70.9,29.86,SSW,196,3.0,11.0,74,0.00,,,0.00,Wunderground v.1.15,2013-06-20 04:46:00,
2013-06-19 23:47:00,79.8,70.8,29.87,ESE,123,4.0,11.0,74,0.00,,,0.00,Wunderground v.1.15,2013-06-20 04:47:00,
2013-06-19 23:48:00,79.8,70.8,29.87,SE,136,4.0,11.0,74,0.00,,,0.00,Wunderground v.1.15,2013-06-20 04:48:00,
2013-06-19 23:49:00,79.8,70.8,29.87,South,169,5.0,11.0,74,0.00,,,0.00,Wunderground v.1.15,2013-06-20 04:49:00,
2013-06-19 23:51:00,79.8,70.8,29.87,SSE,148,6.0,6.0,74,0.00,,,0.00,Wunderground v.1.15,2013-06-20 04:51:00,
2013-06-19 23:55:00,79.6,70.6,29.87,SSE,161,6.0,8.0,74,0.00,,,0.00,Wunderground v.1.15,2013-06-20 04:55:00,
2013-06-19 23:57:00,79.6,71.0,29.87,SSE,155,6.0,12.0,75,0.00,,,0.00,Wunderground v.1.15,2013-06-20 04:57:00,
2013-06-19 23:58:00,79.6,71.0,29.87,ESE,119,6.0,12.0,75,0.00,,,0.00,Wunderground v.1.15,2013-06-20 04:58:00,